Time,TemperatureF,DewpointF,PressureIn,WindDirection,WindDirectionDegrees,WindSpeedMPH,WindSpeedGustMPH,Humidity,HourlyPrecipIn,Conditions,Clouds,dailyrainin,SoftwareType,DateUTC
2013-06-23 00:00:00,55.9,39.0,29.73,NNW,330,0.0,31.0,53,0.00,,---,0.00,VWS V12.07,2013-06-23 07:00:00,
2013-06-23 00:01:00,55.7,38.8,29.73,NNW,330,0.0,31.0,53,0.00,,---,0.00,VWS V12.07,2013-06-23 07:01:00,
2013-06-23 00:02:00,55.7,38.8,29.73,NNW,330,0.0,31.0,53,0.00,,---,0.00,VWS V12.07,2013-06-23 07:02:00,
2013-06-23 00:04:00,55.7,38.8,29.73,NNW,330,0.0,31.0,53,0.00,,---,0.00,VWS V12.07,2013-06-23 07:04:00,
2013-06-23 00:05:00,55.9,39.0,29.73,NNW,330,0.0,31.0,53,0.00,,---,0.00,VWS V12.07,2013-06-23 07:05:00,
2013-06-23 00:07:00,56.0,39.1,29.73,NNW,330,0.0,31.0,53,0.00,,---,0.00,VWS V12.07,2013-06-23 07:07:00,
2013-06-23 00:08:00,56.0,39.1,29.73,NNW,330,0.0,31.0,53,0.00,,---,0.00,VWS V12.07,2013-06-23 07:08:00,
2013-06-23 00:09:00,56.0,39.1,29.73,NNW,330,0.0,31.0,53,0.00,,---,0.00,VWS V12.07,2013-06-23 07:09:00,
2013-06-23 00:12:00,56.2,39.3,29.73,NNW,330,0.0,31.0,53,0.00,,---,0.00,VWS V12.07,2013-06-23 07:12:00,
2013-06-23 00:13:00,56.2,39.3,29.73,NNW,330,0.0,31.0,53,0.00,,---,0.00,VWS V12.07,2013-06-23 07:13:00,
2013-06-23 00:15:00,56.2,39.3,29.71,NNW,330,0.0,31.0,53,0.00,,---,0.00,VWS V12.07,2013-06-23 07:15:00,
2013-06-23 00:17:00,56.2,39.3,29.71,NNW,330,0.0,31.0,53,0.00,,---,0.00,VWS V12.07,2013-06-23 07:17:00,
2013-06-23 00:18:00,56.2,39.3,29.71,NNW,330,0.0,31.0,53,0.00,,---,0.00,VWS V12.07,2013-06-23 07:18:00,
2013-06-23 00:20:00,56.0,39.1,29.71,NNW,330,0.0,31.0,53,0.00,,---,0.00,VWS V12.07,2013-06-23 07:20:00,
2013-06-23 00:22:00,56.0,39.1,29.71,NNW,330,0.0,31.0,53,0.00,,---,0.00,VWS V12.07,2013-06-23 07:22:00,
2013-06-23 00:23:00,56.0,39.1,29.71,NNW,330,0.0,31.0,53,0.00,,---,0.00,VWS V12.07,2013-06-23 07:23:00,
2013-06-23 00:25:00,56.0,39.1,29.71,NNW,330,0.0,31.0,53,0.00,,---,0.00,VWS V12.07,2013-06-23 07:25:00,
2013-06-23 00:27:00,56.0,39.1,29.71,NNW,330,0.0,31.0,53,0.00,,---,0.00,VWS V12.07,2013-06-23 07:27:00,
2013-06-23 00:28:00,56.0,39.1,29.71,NNW,330,0.0,31.0,53,0.00,,---,0.00,VWS V12.07,2013-06-23 07:28:00,
2013-06-23 00:29:00,56.0,39.1,29.71,NNW,330,0.0,31.0,53,0.00,,---,0.00,VWS V12.07,2013-06-23 07:29:00,
2013-06-23 00:30:00,56.0,39.1,29.70,NNW,330,0.0,31.0,53,0.00,,---,0.00,VWS V12.07,2013-06-23 07:30:00,
2013-06-23 00:32:00,56.0,39.6,29.70,NNW,330,0.0,31.0,54,0.00,,---,0.00,VWS V12.07,2013-06-23 07:32:00,
2013-06-23 00:33:00,55.9,39.5,29.70,NNW,330,1.0,31.0,54,0.00,,---,0.00,VWS V12.07,2013-06-23 07:33:00,
2013-06-23 00:34:00,55.9,39.5,29.70,NNW,330,1.0,31.0,54,0.00,,---,0.00,VWS V12.07,2013-06-23 07:34:00,
2013-06-23 00:35:00,55.7,39.3,29.70,NNW,330,0.0,31.0,54,0.00,,---,0.00,VWS V12.07,2013-06-23 07:35:00,
2013-06-23 00:38:00,55.6,39.2,29.70,NNW,330,0.0,31.0,54,0.00,,---,0.00,VWS V12.07,2013-06-23 07:38:00,
2013-06-23 00:39:00,55.4,39.0,29.70,NNW,330,0.0,31.0,54,0.00,,---,0.00,VWS V12.07,2013-06-23 07:39:00,
2013-06-23 00:40:00,55.4,39.5,29.70,NNW,330,0.0,31.0,55,0.00,,---,0.00,VWS V12.07,2013-06-23 07:40:00,
2013-06-23 00:43:00,55.3,39.4,29.70,NNW,330,0.0,31.0,55,0.00,,---,0.00,VWS V12.07,2013-06-23 07:43:00,
2013-06-23 00:44:00,55.1,39.2,29.70,NNW,330,0.0,31.0,55,0.00,,---,0.00,VWS V12.07,2013-06-23 07:44:00,
2013-06-23 00:46:00,55.1,39.7,29.70,NNW,330,0.0,31.0,56,0.00,,---,0.00,VWS V12.07,2013-06-23 07:46:00,
2013-06-23 00:48:00,55.0,39.6,29.70,NNW,330,0.0,31.0,56,0.00,,---,0.00,VWS V12.07,2013-06-23 07:48:00,
2013-06-23 00:49:00,55.0,39.6,29.70,NNW,330,0.0,31.0,56,0.00,,---,0.00,VWS V12.07,2013-06-23 07:49:00,
2013-06-23 00:51:00,54.8,39.4,29.70,NNW,330,0.0,31.0,56,0.00,,---,0.00,VWS V12.07,2013-06-23 07:51:00,
2013-06-23 00:54:00,54.7,39.3,29.70,NNW,330,0.0,31.0,56,0.00,,---,0.00,VWS V12.07,2013-06-23 07:54:00,
2013-06-23 00:55:00,54.7,39.3,29.70,NNW,330,0.0,31.0,56,0.00,,---,0.00,VWS V12.07,2013-06-23 07:55:00,
2013-06-23 00:57:00,54.5,39.1,29.70,NNW,330,0.0,31.0,56,0.00,,---,0.00,VWS V12.07,2013-06-23 07:57:00,
2013-06-23 00:59:00,54.5,39.1,29.70,NNW,330,0.0,31.0,56,0.00,,---,0.00,VWS V12.07,2013-06-23 07:59:00,
2013-06-23 01:00:00,54.5,39.1,29.69,NNW,330,0.0,31.0,56,0.00,,---,0.00,VWS V12.07,2013-06-23 08:00:00,
2013-06-23 01:01:00,54.5,39.1,29.69,NNW,330,0.0,31.0,56,0.00,,---,0.00,VWS V12.07,2013-06-23 08:01:00,
2013-06-23 01:02:00,54.5,38.7,29.69,NNW,330,0.0,31.0,55,0.00,,---,0.00,VWS V12.07,2013-06-23 08:02:00,
2013-06-23 01:04:00,54.5,39.1,29.69,NNW,330,0.0,31.0,56,0.00,,---,0.00,VWS V12.07,2013-06-23 08:04:00,
2013-06-23 01:05:00,54.5,39.1,29.69,NNW,330,0.0,31.0,56,0.00,,---,0.00,VWS V12.07,2013-06-23 08:05:00,
2013-06-23 01:06:00,54.5,39.1,29.69,NNW,330,0.0,31.0,56,0.00,,---,0.00,VWS V12.07,2013-06-23 08:06:00,
2013-06-23 01:07:00,54.5,38.7,29.69,NNW,330,0.0,31.0,55,0.00,,---,0.00,VWS V12.07,2013-06-23 08:07:00,
2013-06-23 01:10:00,54.4,39.0,29.69,NNW,330,0.0,31.0,56,0.00,,---,0.00,VWS V12.07,2013-06-23 08:10:00,
2013-06-23 01:11:00,54.4,39.5,29.69,NNW,330,0.0,31.0,57,0.00,,---,0.00,VWS V12.07,2013-06-23 08:11:00,
2013-06-23 01:13:00,54.2,39.3,29.69,NNW,330,0.0,31.0,57,0.00,,---,0.00,VWS V12.07,2013-06-23 08:13:00,
2013-06-23 01:15:00,53.9,38.6,29.70,NNW,330,0.0,31.0,56,0.00,,---,0.00,VWS V12.07,2013-06-23 08:15:00,
2013-06-23 01:16:00,53.8,38.9,29.70,NNW,330,0.0,31.0,57,0.00,,---,0.00,VWS V12.07,2013-06-23 08:16:00,
2013-06-23 01:18:00,53.6,38.8,29.70,NNW,330,0.0,31.0,57,0.00,,---,0.00,VWS V12.07,2013-06-23 08:18:00,
2013-06-23 01:20:00,53.5,38.7,29.70,NNW,330,0.0,31.0,57,0.00,,---,0.00,VWS V12.07,2013-06-23 08:20:00,
2013-06-23 01:21:00,53.5,38.7,29.70,NNW,330,0.0,31.0,57,0.00,,---,0.00,VWS V12.07,2013-06-23 08:21:00,
2013-06-23 01:22:00,53.3,38.5,29.70,NNW,330,0.0,31.0,57,0.00,,---,0.00,VWS V12.07,2013-06-23 08:22:00,
2013-06-23 01:23:00,53.3,38.5,29.70,NNW,330,0.0,31.0,57,0.00,,---,0.00,VWS V12.07,2013-06-23 08:23:00,
2013-06-23 01:25:00,53.1,38.7,29.70,NNW,330,0.0,31.0,58,0.00,,---,0.00,VWS V12.07,2013-06-23 08:25:00,
2013-06-23 01:27:00,52.9,38.5,29.70,NNW,330,0.0,31.0,58,0.00,,---,0.00,VWS V12.07,2013-06-23 08:27:00,
2013-06-23 01:28:00,52.9,38.5,29.70,NNW,330,0.0,31.0,58,0.00,,---,0.00,VWS V12.07,2013-06-23 08:28:00,
2013-06-23 01:30:00,52.6,38.7,29.70,NNW,330,0.0,31.0,59,0.00,,---,0.00,VWS V12.07,2013-06-23 08:30:00,
2013-06-23 01:32:00,52.5,38.6,29.70,NNW,330,0.0,31.0,59,0.00,,---,0.00,VWS V12.07,2013-06-23 08:32:00,
2013-06-23 01:33:00,52.3,38.4,29.70,NNW,330,0.0,31.0,59,0.00,,---,0.00,VWS V12.07,2013-06-23 08:33:00,
2013-06-23 01:35:00,52.2,38.3,29.70,NNW,330,0.0,31.0,59,0.00,,---,0.00,VWS V12.07,2013-06-23 08:35:00,
2013-06-23 01:36:00,52.2,38.3,29.70,NNW,330,0.0,31.0,59,0.00,,---,0.00,VWS V12.07,2013-06-23 08:36:00,
2013-06-23 01:37:00,52.0,38.1,29.70,NNW,330,0.0,31.0,59,0.00,,---,0.00,VWS V12.07,2013-06-23 08:37:00,
2013-06-23 01:38:00,52.0,38.1,29.70,NNW,330,0.0,31.0,59,0.00,,---,0.00,VWS V12.07,2013-06-23 08:38:00,
2013-06-23 01:39:00,52.0,38.6,29.70,NNW,330,0.0,31.0,60,0.00,,---,0.00,VWS V12.07,2013-06-23 08:39:00,
2013-06-23 01:41:00,52.0,38.1,29.70,NNW,330,0.0,31.0,59,0.00,,---,0.00,VWS V12.07,2013-06-23 08:41:00,
2013-06-23 01:42:00,52.0,38.1,29.70,NNW,330,1.0,31.0,59,0.00,,---,0.00,VWS V12.07,2013-06-23 08:42:00,
2013-06-23 01:43:00,51.9,38.0,29.70,NNW,330,0.0,31.0,59,0.00,,---,0.00,VWS V12.07,2013-06-23 08:43:00,
2013-06-23 01:44:00,51.7,37.8,29.69,NNW,330,0.0,31.0,59,0.00,,---,0.00,VWS V12.07,2013-06-23 08:44:00,
2013-06-23 01:46:00,51.7,37.8,29.69,NNW,330,0.0,31.0,59,0.00,,---,0.00,VWS V12.07,2013-06-23 08:46:00,
2013-06-23 01:47:00,51.6,37.8,29.69,NNW,330,0.0,31.0,59,0.00,,---,0.00,VWS V12.07,2013-06-23 08:47:00,
2013-06-23 01:48:00,51.6,38.2,29.69,NNW,330,0.0,31.0,60,0.00,,---,0.00,VWS V12.07,2013-06-23 08:48:00,
2013-06-23 01:49:00,51.4,37.6,29.69,NNW,330,0.0,31.0,59,0.00,,---,0.00,VWS V12.07,2013-06-23 08:49:00,
2013-06-23 01:51:00,51.4,37.6,29.69,NNW,330,0.0,31.0,59,0.00,,---,0.00,VWS V12.07,2013-06-23 08:51:00,
2013-06-23 01:53:00,51.4,37.6,29.69,NNW,330,0.0,31.0,59,0.00,,---,0.00,VWS V12.07,2013-06-23 08:53:00,
2013-06-23 01:54:00,51.4,38.0,29.69,NNW,330,0.0,31.0,60,0.00,,---,0.00,VWS V12.07,2013-06-23 08:54:00,
2013-06-23 01:56:00,51.4,38.0,29.69,NNW,330,0.0,31.0,60,0.00,,---,0.00,VWS V12.07,2013-06-23 08:56:00,
2013-06-23 01:58:00,51.3,37.9,29.69,NNW,330,0.0,31.0,60,0.00,,---,0.00,VWS V12.07,2013-06-23 08:58:00,
2013-06-23 01:59:00,51.3,37.9,29.70,NNW,330,0.0,31.0,60,0.00,,---,0.00,VWS V12.07,2013-06-23 08:59:00,
2013-06-23 02:00:00,51.3,37.9,29.70,NNW,330,0.0,31.0,60,0.00,,---,0.00,VWS V12.07,2013-06-23 09:00:00,
2013-06-23 02:02:00,51.1,37.7,29.70,NNW,330,0.0,31.0,60,0.00,,---,0.00,VWS V12.07,2013-06-23 09:02:00,
2013-06-23 02:03:00,51.1,37.7,29.70,NNW,330,0.0,31.0,60,0.00,,---,0.00,VWS V12.07,2013-06-23 09:03:00,
2013-06-23 02:04:00,51.1,37.7,29.70,NNW,330,0.0,31.0,60,0.00,,---,0.00,VWS V12.07,2013-06-23 09:04:00,
2013-06-23 02:06:00,51.1,37.7,29.70,NNW,330,0.0,31.0,60,0.00,,---,0.00,VWS V12.07,2013-06-23 09:06:00,
2013-06-23 02:07:00,51.0,37.6,29.70,NNW,330,0.0,31.0,60,0.00,,---,0.00,VWS V12.07,2013-06-23 09:07:00,
2013-06-23 02:08:00,51.0,38.0,29.70,NNW,330,0.0,31.0,61,0.00,,---,0.00,VWS V12.07,2013-06-23 09:08:00,
2013-06-23 02:09:00,51.0,38.0,29.70,NNW,330,0.0,31.0,61,0.00,,---,0.00,VWS V12.07,2013-06-23 09:09:00,
2013-06-23 02:11:00,50.8,37.8,29.70,NNW,330,0.0,31.0,61,0.00,,---,0.00,VWS V12.07,2013-06-23 09:11:00,
2013-06-23 02:13:00,50.8,37.8,29.70,NNW,330,0.0,31.0,61,0.00,,---,0.00,VWS V12.07,2013-06-23 09:13:00,
2013-06-23 02:14:00,50.8,37.8,29.70,NNW,330,0.0,31.0,61,0.00,,---,0.00,VWS V12.07,2013-06-23 09:14:00,
2013-06-23 02:16:00,50.8,37.8,29.69,NNW,330,0.0,31.0,61,0.00,,---,0.00,VWS V12.07,2013-06-23 09:16:00,
2013-06-23 02:19:00,50.8,37.8,29.69,NNW,330,0.0,31.0,61,0.00,,---,0.00,VWS V12.07,2013-06-23 09:19:00,
2013-06-23 02:20:00,50.8,37.8,29.69,NNW,330,0.0,31.0,61,0.00,,---,0.00,VWS V12.07,2013-06-23 09:20:00,
2013-06-23 02:21:00,50.8,37.8,29.69,NNW,330,0.0,31.0,61,0.00,,---,0.00,VWS V12.07,2013-06-23 09:21:00,
2013-06-23 02:24:00,50.8,37.8,29.69,NNW,330,0.0,31.0,61,0.00,,---,0.00,VWS V12.07,2013-06-23 09:24:00,
2013-06-23 02:25:00,50.8,37.8,29.69,NNW,330,0.0,31.0,61,0.00,,---,0.00,VWS V12.07,2013-06-23 09:25:00,
2013-06-23 02:28:00,50.8,37.8,29.69,NNW,330,0.0,31.0,61,0.00,,---,0.00,VWS V12.07,2013-06-23 09:28:00,
2013-06-23 02:29:00,50.8,37.8,29.69,NNW,330,0.0,31.0,61,0.00,,---,0.00,VWS V12.07,2013-06-23 09:29:00,
2013-06-23 02:30:00,50.8,37.8,29.69,NNW,330,0.0,31.0,61,0.00,,---,0.00,VWS V12.07,2013-06-23 09:30:00,
2013-06-23 02:33:00,51.0,38.0,29.69,NNW,330,0.0,31.0,61,0.00,,---,0.00,VWS V12.07,2013-06-23 09:33:00,
2013-06-23 02:34:00,51.0,38.0,29.69,NNW,330,0.0,31.0,61,0.00,,---,0.00,VWS V12.07,2013-06-23 09:34:00,
2013-06-23 02:35:00,51.0,38.0,29.69,NNW,330,0.0,31.0,61,0.00,,---,0.00,VWS V12.07,2013-06-23 09:35:00,
2013-06-23 02:36:00,51.0,38.0,29.69,NNW,330,0.0,31.0,61,0.00,,---,0.00,VWS V12.07,2013-06-23 09:36:00,
2013-06-23 02:38:00,51.0,38.0,29.69,NNW,330,0.0,31.0,61,0.00,,---,0.00,VWS V12.07,2013-06-23 09:38:00,
2013-06-23 02:40:00,51.1,38.1,29.69,NNW,330,0.0,31.0,61,0.00,,---,0.00,VWS V12.07,2013-06-23 09:40:00,
2013-06-23 02:41:00,51.1,38.1,29.69,NNW,330,0.0,31.0,61,0.00,,---,0.00,VWS V12.07,2013-06-23 09:41:00,
2013-06-23 02:43:00,51.1,38.1,29.69,NNW,330,0.0,31.0,61,0.00,,---,0.00,VWS V12.07,2013-06-23 09:43:00,
2013-06-23 02:45:00,51.3,38.3,29.69,NNW,330,0.0,31.0,61,0.00,,---,0.00,VWS V12.07,2013-06-23 09:45:00,
2013-06-23 02:46:00,51.3,38.3,29.69,NNW,330,0.0,31.0,61,0.00,,---,0.00,VWS V12.07,2013-06-23 09:46:00,
2013-06-23 02:47:00,51.3,38.3,29.69,NNW,330,0.0,31.0,61,0.00,,---,0.00,VWS V12.07,2013-06-23 09:47:00,
2013-06-23 02:48:00,51.3,38.3,29.69,NNW,330,0.0,31.0,61,0.00,,---,0.00,VWS V12.07,2013-06-23 09:48:00,
2013-06-23 02:49:00,51.3,38.3,29.69,NNW,330,0.0,31.0,61,0.00,,---,0.00,VWS V12.07,2013-06-23 09:49:00,
2013-06-23 02:50:00,51.3,38.3,29.69,NNW,330,0.0,31.0,61,0.00,,---,0.00,VWS V12.07,2013-06-23 09:50:00,
2013-06-23 02:51:00,51.3,38.3,29.69,NNW,330,0.0,31.0,61,0.00,,---,0.00,VWS V12.07,2013-06-23 09:51:00,
2013-06-23 02:52:00,51.3,38.3,29.69,NNW,330,0.0,31.0,61,0.00,,---,0.00,VWS V12.07,2013-06-23 09:52:00,
2013-06-23 02:53:00,51.4,38.4,29.69,NNW,330,0.0,31.0,61,0.00,,---,0.00,VWS V12.07,2013-06-23 09:53:00,
2013-06-23 02:55:00,51.4,38.4,29.69,NNW,330,0.0,31.0,61,0.00,,---,0.00,VWS V12.07,2013-06-23 09:55:00,
2013-06-23 02:56:00,51.4,38.4,29.69,NNW,330,0.0,31.0,61,0.00,,---,0.00,VWS V12.07,2013-06-23 09:56:00,
2013-06-23 02:57:00,51.4,38.4,29.69,NNW,330,0.0,31.0,61,0.00,,---,0.00,VWS V12.07,2013-06-23 09:57:00,
2013-06-23 02:59:00,51.3,38.3,29.68,NNW,330,0.0,31.0,61,0.00,,---,0.00,VWS V12.07,2013-06-23 09:59:00,
2013-06-23 03:00:00,51.3,38.3,29.68,NNW,330,0.0,31.0,61,0.00,,---,0.00,VWS V12.07,2013-06-23 10:00:00,
2013-06-23 03:01:00,51.3,38.3,29.68,NNW,330,0.0,31.0,61,0.00,,---,0.00,VWS V12.07,2013-06-23 10:01:00,
2013-06-23 03:02:00,51.3,38.3,29.68,NNW,330,0.0,31.0,61,0.00,,---,0.00,VWS V12.07,2013-06-23 10:02:00,
2013-06-23 03:05:00,51.3,37.9,29.68,NNW,330,0.0,31.0,60,0.00,,---,0.00,VWS V12.07,2013-06-23 10:05:00,
2013-06-23 03:06:00,51.3,37.9,29.68,NNW,330,0.0,31.0,60,0.00,,---,0.00,VWS V12.07,2013-06-23 10:06:00,
2013-06-23 03:07:00,51.3,38.3,29.68,NNW,330,0.0,31.0,61,0.00,,---,0.00,VWS V12.07,2013-06-23 10:07:00,
2013-06-23 03:10:00,51.3,38.3,29.68,NNW,330,0.0,31.0,61,0.00,,---,0.00,VWS V12.07,2013-06-23 10:10:00,
2013-06-23 03:11:00,51.3,38.3,29.68,NNW,330,0.0,31.0,61,0.00,,---,0.00,VWS V12.07,2013-06-23 10:11:00,
2013-06-23 03:12:00,51.3,38.3,29.68,NNW,330,0.0,31.0,61,0.00,,---,0.00,VWS V12.07,2013-06-23 10:12:00,
2013-06-23 03:16:00,51.3,38.3,29.67,NNW,330,0.0,31.0,61,0.00,,---,0.00,VWS V12.07,2013-06-23 10:16:00,
2013-06-23 03:17:00,51.3,38.3,29.67,NNW,330,0.0,31.0,61,0.00,,---,0.00,VWS V12.07,2013-06-23 10:17:00,
2013-06-23 03:18:00,51.3,38.3,29.67,NNW,330,0.0,31.0,61,0.00,,---,0.00,VWS V12.07,2013-06-23 10:18:00,
2013-06-23 03:21:00,51.1,38.1,29.67,NNW,330,0.0,31.0,61,0.00,,---,0.00,VWS V12.07,2013-06-23 10:21:00,
2013-06-23 03:22:00,51.1,38.1,29.67,NNW,330,0.0,31.0,61,0.00,,---,0.00,VWS V12.07,2013-06-23 10:22:00,
2013-06-23 03:23:00,51.1,38.1,29.67,NNW,330,0.0,31.0,61,0.00,,---,0.00,VWS V12.07,2013-06-23 10:23:00,
2013-06-23 03:27:00,51.0,38.0,29.67,NNW,330,0.0,31.0,61,0.00,,---,0.00,VWS V12.07,2013-06-23 10:27:00,
2013-06-23 03:28:00,51.0,38.0,29.67,NNW,330,0.0,31.0,61,0.00,,---,0.00,VWS V12.07,2013-06-23 10:28:00,
2013-06-23 03:32:00,51.0,38.0,29.67,NNW,330,0.0,31.0,61,0.00,,---,0.00,VWS V12.07,2013-06-23 10:32:00,
2013-06-23 03:33:00,51.0,38.0,29.67,NNW,330,0.0,31.0,61,0.00,,---,0.00,VWS V12.07,2013-06-23 10:33:00,
2013-06-23 03:37:00,51.0,38.0,29.67,NNW,330,0.0,31.0,61,0.00,,---,0.00,VWS V12.07,2013-06-23 10:37:00,
2013-06-23 03:38:00,51.0,38.0,29.67,NNW,330,0.0,31.0,61,0.00,,---,0.00,VWS V12.07,2013-06-23 10:38:00,
2013-06-23 03:39:00,51.0,38.0,29.67,NNW,330,0.0,31.0,61,0.00,,---,0.00,VWS V12.07,2013-06-23 10:39:00,
2013-06-23 03:40:00,51.0,38.0,29.67,NNW,330,0.0,31.0,61,0.00,,---,0.00,VWS V12.07,2013-06-23 10:40:00,
2013-06-23 03:42:00,51.0,38.0,29.67,NNW,330,0.0,31.0,61,0.00,,---,0.00,VWS V12.07,2013-06-23 10:42:00,
2013-06-23 03:43:00,51.0,38.0,29.67,NNW,330,0.0,31.0,61,0.00,,---,0.00,VWS V12.07,2013-06-23 10:43:00,
2013-06-23 03:44:00,51.0,38.0,29.66,NNW,330,0.0,31.0,61,0.00,,---,0.00,VWS V12.07,2013-06-23 10:44:00,
2013-06-23 03:45:00,51.0,38.0,29.66,NNW,330,0.0,31.0,61,0.00,,---,0.00,VWS V12.07,2013-06-23 10:45:00,
2013-06-23 03:48:00,51.0,38.5,29.66,NNW,330,0.0,31.0,62,0.00,,---,0.00,VWS V12.07,2013-06-23 10:48:00,
2013-06-23 03:49:00,51.0,38.5,29.66,NNW,330,0.0,31.0,62,0.00,,---,0.00,VWS V12.07,2013-06-23 10:49:00,
2013-06-23 03:51:00,51.0,38.5,29.66,NNW,330,0.0,31.0,62,0.00,,---,0.00,VWS V12.07,2013-06-23 10:51:00,
2013-06-23 03:53:00,51.0,38.5,29.66,NNW,330,0.0,31.0,62,0.00,,---,0.00,VWS V12.07,2013-06-23 10:53:00,
2013-06-23 03:54:00,51.0,38.5,29.66,NNW,330,0.0,31.0,62,0.00,,---,0.00,VWS V12.07,2013-06-23 10:54:00,
2013-06-23 03:55:00,51.0,38.5,29.66,NNW,330,0.0,31.0,62,0.00,,---,0.00,VWS V12.07,2013-06-23 10:55:00,
2013-06-23 03:56:00,51.0,38.5,29.66,NNW,330,0.0,31.0,62,0.00,,---,0.00,VWS V12.07,2013-06-23 10:56:00,
2013-06-23 03:58:00,51.1,38.5,29.66,NNW,330,0.0,31.0,62,0.00,,---,0.00,VWS V12.07,2013-06-23 10:58:00,
2013-06-23 03:59:00,51.1,38.5,29.66,NNW,330,0.0,31.0,62,0.00,,---,0.00,VWS V12.07,2013-06-23 10:59:00,
2013-06-23 04:00:00,51.1,38.5,29.66,NNW,330,0.0,31.0,62,0.00,,---,0.00,VWS V12.07,2013-06-23 11:00:00,
2013-06-23 04:01:00,51.1,38.5,29.66,NNW,330,0.0,31.0,62,0.00,,---,0.00,VWS V12.07,2013-06-23 11:01:00,
2013-06-23 04:03:00,51.1,38.5,29.66,NNW,330,0.0,31.0,62,0.00,,---,0.00,VWS V12.07,2013-06-23 11:03:00,
2013-06-23 04:05:00,51.1,38.5,29.66,NNW,330,0.0,31.0,62,0.00,,---,0.00,VWS V12.07,2013-06-23 11:05:00,
2013-06-23 04:06:00,51.1,38.5,29.66,NNW,330,0.0,31.0,62,0.00,,---,0.00,VWS V12.07,2013-06-23 11:06:00,
2013-06-23 04:09:00,51.1,38.5,29.66,NNW,330,0.0,31.0,62,0.00,,---,0.00,VWS V12.07,2013-06-23 11:09:00,
2013-06-23 04:10:00,51.1,38.5,29.66,NNW,330,0.0,31.0,62,0.00,,---,0.00,VWS V12.07,2013-06-23 11:10:00,
2013-06-23 04:11:00,51.1,38.5,29.66,NNW,330,0.0,31.0,62,0.00,,---,0.00,VWS V12.07,2013-06-23 11:11:00,
2013-06-23 04:14:00,51.1,38.5,29.66,NNW,330,0.0,31.0,62,0.00,,---,0.00,VWS V12.07,2013-06-23 11:14:00,
2013-06-23 04:15:00,51.1,38.5,29.65,NNW,330,0.0,31.0,62,0.00,,---,0.00,VWS V12.07,2013-06-23 11:15:00,
2013-06-23 04:16:00,51.1,38.5,29.65,NNW,330,0.0,31.0,62,0.00,,---,0.00,VWS V12.07,2013-06-23 11:16:00,
2013-06-23 04:17:00,51.1,39.0,29.65,NNW,330,0.0,31.0,63,0.00,,---,0.00,VWS V12.07,2013-06-23 11:17:00,
2013-06-23 04:19:00,51.1,39.0,29.65,NNW,330,0.0,31.0,63,0.00,,---,0.00,VWS V12.07,2013-06-23 11:19:00,
2013-06-23 04:20:00,51.1,39.0,29.65,NNW,330,0.0,31.0,63,0.00,,---,0.00,VWS V12.07,2013-06-23 11:20:00,
2013-06-23 04:21:00,51.1,39.0,29.65,NNW,330,0.0,31.0,63,0.00,,---,0.00,VWS V12.07,2013-06-23 11:21:00,
2013-06-23 04:22:00,51.1,39.0,29.65,NNW,330,0.0,31.0,63,0.00,,---,0.00,VWS V12.07,2013-06-23 11:22:00,
2013-06-23 04:25:00,51.1,39.0,29.65,NNW,330,0.0,31.0,63,0.00,,---,0.00,VWS V12.07,2013-06-23 11:25:00,
2013-06-23 04:26:00,51.1,39.4,29.65,NNW,330,0.0,31.0,64,0.00,,---,0.00,VWS V12.07,2013-06-23 11:26:00,
2013-06-23 04:27:00,51.1,39.4,29.65,NNW,330,0.0,31.0,64,0.00,,---,0.00,VWS V12.07,2013-06-23 11:27:00,
2013-06-23 04:28:00,51.1,39.4,29.65,NNW,330,0.0,31.0,64,0.00,,---,0.00,VWS V12.07,2013-06-23 11:28:00,
2013-06-23 04:30:00,51.1,39.8,29.65,NNW,330,0.0,31.0,65,0.00,,---,0.00,VWS V12.07,2013-06-23 11:30:00,
2013-06-23 04:31:00,51.1,39.8,29.65,NNW,330,0.0,31.0,65,0.00,,---,0.00,VWS V12.07,2013-06-23 11:31:00,
2013-06-23 04:32:00,51.1,39.8,29.65,NNW,330,0.0,31.0,65,0.00,,---,0.00,VWS V12.07,2013-06-23 11:32:00,
2013-06-23 04:33:00,51.0,39.7,29.65,NNW,330,0.0,31.0,65,0.00,,---,0.00,VWS V12.07,2013-06-23 11:33:00,
2013-06-23 04:35:00,51.0,39.7,29.65,NNW,330,0.0,31.0,65,0.00,,---,0.00,VWS V12.07,2013-06-23 11:35:00,
2013-06-23 04:36:00,51.0,39.7,29.65,NNW,330,0.0,31.0,65,0.00,,---,0.00,VWS V12.07,2013-06-23 11:36:00,
2013-06-23 04:37:00,51.0,39.7,29.65,NNW,330,0.0,31.0,65,0.00,,---,0.00,VWS V12.07,2013-06-23 11:37:00,
2013-06-23 04:38:00,51.0,40.1,29.65,NNW,330,0.0,31.0,66,0.00,,---,0.00,VWS V12.07,2013-06-23 11:38:00,
2013-06-23 04:40:00,51.0,40.1,29.65,NNW,330,0.0,31.0,66,0.00,,---,0.00,VWS V12.07,2013-06-23 11:40:00,
2013-06-23 04:42:00,51.0,40.4,29.65,NNW,330,0.0,31.0,67,0.00,,---,0.00,VWS V12.07,2013-06-23 11:42:00,
2013-06-23 04:43:00,51.0,40.4,29.65,NNW,330,0.0,31.0,67,0.00,,---,0.00,VWS V12.07,2013-06-23 11:43:00,
2013-06-23 04:45:00,51.0,40.8,29.65,NNW,330,0.0,31.0,68,0.00,,---,0.00,VWS V12.07,2013-06-23 11:45:00,
2013-06-23 04:47:00,50.8,41.0,29.65,NNW,330,0.0,31.0,69,0.00,,---,0.00,VWS V12.07,2013-06-23 11:47:00,
2013-06-23 04:49:00,50.8,41.4,29.65,NNW,330,0.0,31.0,70,0.00,,---,0.00,VWS V12.07,2013-06-23 11:49:00,
2013-06-23 04:51:00,50.7,41.3,29.65,NNW,330,0.0,31.0,70,0.00,,---,0.00,VWS V12.07,2013-06-23 11:51:00,
2013-06-23 04:52:00,50.7,41.3,29.65,NNW,330,0.0,31.0,70,0.00,,---,0.00,VWS V12.07,2013-06-23 11:52:00,
2013-06-23 04:53:00,50.7,41.3,29.65,NNW,330,0.0,31.0,70,0.00,,---,0.00,VWS V12.07,2013-06-23 11:53:00,
2013-06-23 04:54:00,50.7,41.3,29.65,NNW,330,0.0,31.0,70,0.00,,---,0.00,VWS V12.07,2013-06-23 11:54:00,
2013-06-23 04:56:00,50.5,41.5,29.65,NNW,330,0.0,31.0,71,0.00,,---,0.00,VWS V12.07,2013-06-23 11:56:00,
2013-06-23 04:57:00,50.5,41.8,29.65,NNW,330,0.0,31.0,72,0.00,,---,0.00,VWS V12.07,2013-06-23 11:57:00,
2013-06-23 04:58:00,50.5,41.8,29.65,NNW,330,0.0,31.0,72,0.00,,---,0.00,VWS V12.07,2013-06-23 11:58:00,
2013-06-23 05:01:00,50.4,42.1,29.65,NNW,330,0.0,31.0,73,0.00,,---,0.00,VWS V12.07,2013-06-23 12:01:00,
2013-06-23 05:02:00,50.4,42.1,29.65,NNW,330,0.0,31.0,73,0.00,,---,0.00,VWS V12.07,2013-06-23 12:02:00,
2013-06-23 05:03:00,50.4,42.1,29.65,NNW,330,0.0,31.0,73,0.00,,---,0.00,VWS V12.07,2013-06-23 12:03:00,
2013-06-23 05:06:00,50.4,42.1,29.65,NNW,330,0.0,31.0,73,0.00,,---,0.00,VWS V12.07,2013-06-23 12:06:00,
2013-06-23 05:08:00,50.4,42.4,29.65,NNW,330,0.0,31.0,74,0.00,,---,0.00,VWS V12.07,2013-06-23 12:08:00,
2013-06-23 05:09:00,50.4,42.4,29.65,NNW,330,0.0,31.0,74,0.00,,---,0.00,VWS V12.07,2013-06-23 12:09:00,
2013-06-23 05:11:00,50.2,42.2,29.65,NNW,330,0.0,31.0,74,0.00,,---,0.00,VWS V12.07,2013-06-23 12:11:00,
2013-06-23 05:13:00,50.1,42.2,29.65,NNW,330,0.0,31.0,74,0.00,,---,0.00,VWS V12.07,2013-06-23 12:13:00,
2013-06-23 05:14:00,50.1,42.2,29.65,NNW,330,0.0,31.0,74,0.00,,---,0.00,VWS V12.07,2013-06-23 12:14:00,
2013-06-23 05:16:00,50.1,42.2,29.64,NNW,330,0.0,31.0,74,0.00,,---,0.00,VWS V12.07,2013-06-23 12:16:00,
2013-06-23 05:17:00,50.1,42.5,29.64,NNW,330,0.0,31.0,75,0.00,,---,0.00,VWS V12.07,2013-06-23 12:17:00,
2013-06-23 05:18:00,50.1,42.5,29.64,NNW,330,0.0,31.0,75,0.00,,---,0.00,VWS V12.07,2013-06-23 12:18:00,
2013-06-23 05:19:00,50.1,42.5,29.64,NNW,330,0.0,31.0,75,0.00,,---,0.00,VWS V12.07,2013-06-23 12:19:00,
2013-06-23 05:21:00,49.9,42.3,29.64,NNW,330,0.0,31.0,75,0.00,,---,0.00,VWS V12.07,2013-06-23 12:21:00,
2013-06-23 05:22:00,49.9,42.3,29.64,NNW,330,0.0,31.0,75,0.00,,---,0.00,VWS V12.07,2013-06-23 12:22:00,
2013-06-23 05:24:00,49.8,42.2,29.64,NNW,330,0.0,31.0,75,0.00,,---,0.00,VWS V12.07,2013-06-23 12:24:00,
2013-06-23 05:27:00,49.6,42.0,29.64,NNW,330,0.0,31.0,75,0.00,,---,0.00,VWS V12.07,2013-06-23 12:27:00,
2013-06-23 05:29:00,49.5,42.3,29.64,NNW,330,0.0,31.0,76,0.00,,---,0.00,VWS V12.07,2013-06-23 12:29:00,
2013-06-23 05:30:00,49.5,42.3,29.63,NNW,330,0.0,31.0,76,0.00,,---,0.00,VWS V12.07,2013-06-23 12:30:00,
2013-06-23 05:32:00,49.4,42.2,29.63,NNW,330,0.0,31.0,76,0.00,,---,0.00,VWS V12.07,2013-06-23 12:32:00,
2013-06-23 05:33:00,49.4,42.2,29.63,NNW,330,0.0,31.0,76,0.00,,---,0.00,VWS V12.07,2013-06-23 12:33:00,
2013-06-23 05:34:00,49.2,42.0,29.63,NNW,330,0.0,31.0,76,0.00,,---,0.00,VWS V12.07,2013-06-23 12:34:00,
2013-06-23 05:35:00,49.2,42.3,29.63,NNW,330,0.0,31.0,77,0.00,,---,0.00,VWS V12.07,2013-06-23 12:35:00,
2013-06-23 05:37:00,49.2,42.3,29.63,NNW,330,0.0,31.0,77,0.00,,---,0.00,VWS V12.07,2013-06-23 12:37:00,
2013-06-23 05:38:00,49.2,42.3,29.63,NNW,330,0.0,31.0,77,0.00,,---,0.00,VWS V12.07,2013-06-23 12:38:00,
2013-06-23 05:39:00,49.1,42.2,29.63,NNW,330,0.0,31.0,77,0.00,,---,0.00,VWS V12.07,2013-06-23 12:39:00,
2013-06-23 05:40:00,49.1,42.2,29.63,NNW,330,0.0,31.0,77,0.00,,---,0.00,VWS V12.07,2013-06-23 12:40:00,
2013-06-23 05:43:00,48.9,42.0,29.63,NNW,330,0.0,31.0,77,0.00,,---,0.00,VWS V12.07,2013-06-23 12:43:00,
2013-06-23 05:44:00,48.9,42.0,29.63,NNW,330,0.0,31.0,77,0.00,,---,0.00,VWS V12.07,2013-06-23 12:44:00,
2013-06-23 05:45:00,48.9,42.3,29.64,NNW,330,0.0,31.0,78,0.00,,---,0.00,VWS V12.07,2013-06-23 12:45:00,
2013-06-23 05:48:00,48.8,42.3,29.64,NNW,330,0.0,31.0,78,0.00,,---,0.00,VWS V12.07,2013-06-23 12:48:00,
2013-06-23 05:49:00,48.6,42.1,29.64,NNW,330,0.0,31.0,78,0.00,,---,0.00,VWS V12.07,2013-06-23 12:49:00,
2013-06-23 05:50:00,48.6,42.1,29.64,NNW,330,0.0,31.0,78,0.00,,---,0.00,VWS V12.07,2013-06-23 12:50:00,
2013-06-23 05:53:00,48.6,42.4,29.64,NNW,330,0.0,31.0,79,0.00,,---,0.00,VWS V12.07,2013-06-23 12:53:00,
2013-06-23 05:54:00,48.6,42.4,29.64,NNW,330,0.0,31.0,79,0.00,,---,0.00,VWS V12.07,2013-06-23 12:54:00,
2013-06-23 05:55:00,48.6,42.4,29.64,NNW,330,0.0,31.0,79,0.00,,---,0.00,VWS V12.07,2013-06-23 12:55:00,
2013-06-23 05:58:00,48.6,42.4,29.64,NNW,330,0.0,31.0,79,0.00,,---,0.00,VWS V12.07,2013-06-23 12:58:00,
2013-06-23 05:59:00,48.6,42.4,29.64,NNW,330,0.0,31.0,79,0.00,,---,0.00,VWS V12.07,2013-06-23 12:59:00,
2013-06-23 06:01:00,48.6,42.4,29.64,NNW,330,0.0,31.0,79,0.00,,---,0.00,VWS V12.07,2013-06-23 13:01:00,
2013-06-23 06:02:00,48.6,42.4,29.64,NNW,330,0.0,31.0,79,0.00,,---,0.00,VWS V12.07,2013-06-23 13:02:00,
2013-06-23 06:04:00,48.6,42.4,29.64,NNW,330,0.0,31.0,79,0.00,,---,0.00,VWS V12.07,2013-06-23 13:04:00,
2013-06-23 06:06:00,48.6,42.4,29.64,NNW,330,0.0,31.0,79,0.00,,---,0.00,VWS V12.07,2013-06-23 13:06:00,
2013-06-23 06:07:00,48.6,42.4,29.64,NNW,330,0.0,31.0,79,0.00,,---,0.00,VWS V12.07,2013-06-23 13:07:00,
2013-06-23 06:10:00,48.6,42.4,29.64,NNW,330,0.0,31.0,79,0.00,,---,0.00,VWS V12.07,2013-06-23 13:10:00,
2013-06-23 06:11:00,48.6,42.4,29.64,NNW,330,0.0,31.0,79,0.00,,---,0.00,VWS V12.07,2013-06-23 13:11:00,
2013-06-23 06:12:00,48.6,42.4,29.64,NNW,330,0.0,31.0,79,0.00,,---,0.00,VWS V12.07,2013-06-23 13:12:00,
2013-06-23 06:15:00,48.8,42.6,29.65,NNW,330,0.0,31.0,79,0.00,,---,0.00,VWS V12.07,2013-06-23 13:15:00,
2013-06-23 06:16:00,48.8,42.6,29.65,NNW,330,0.0,31.0,79,0.00,,---,0.00,VWS V12.07,2013-06-23 13:16:00,
2013-06-23 06:17:00,48.8,42.6,29.65,NNW,330,0.0,31.0,79,0.00,,---,0.00,VWS V12.07,2013-06-23 13:17:00,
2013-06-23 06:20:00,48.9,43.0,29.65,NNW,330,0.0,31.0,80,0.00,,---,0.00,VWS V12.07,2013-06-23 13:20:00,
2013-06-23 06:21:00,49.1,43.2,29.65,NNW,330,0.0,31.0,80,0.00,,---,0.00,VWS V12.07,2013-06-23 13:21:00,
2013-06-23 06:22:00,49.1,43.2,29.65,NNW,330,0.0,31.0,80,0.00,,---,0.00,VWS V12.07,2013-06-23 13:22:00,
2013-06-23 06:23:00,49.1,43.2,29.65,NNW,330,0.0,31.0,80,0.00,,---,0.00,VWS V12.07,2013-06-23 13:23:00,
2013-06-23 06:25:00,49.2,43.3,29.65,NNW,330,0.0,31.0,80,0.00,,---,0.00,VWS V12.07,2013-06-23 13:25:00,
2013-06-23 06:27:00,49.2,43.3,29.65,NNW,330,0.0,31.0,80,0.00,,---,0.00,VWS V12.07,2013-06-23 13:27:00,
2013-06-23 06:28:00,49.2,43.3,29.65,NNW,330,0.0,31.0,80,0.00,,---,0.00,VWS V12.07,2013-06-23 13:28:00,
2013-06-23 06:30:00,49.4,43.5,29.65,NNW,330,0.0,31.0,80,0.00,,---,0.00,VWS V12.07,2013-06-23 13:30:00,
2013-06-23 06:33:00,49.5,43.6,29.65,NNW,330,0.0,31.0,80,0.00,,---,0.00,VWS V12.07,2013-06-23 13:33:00,
2013-06-23 06:35:00,49.5,43.6,29.65,NNW,330,0.0,31.0,80,0.00,,---,0.00,VWS V12.07,2013-06-23 13:35:00,
2013-06-23 06:38:00,49.6,43.7,29.65,NNW,330,0.0,31.0,80,0.00,,---,0.00,VWS V12.07,2013-06-23 13:38:00,
2013-06-23 06:40:00,49.6,43.7,29.65,NNW,330,0.0,31.0,80,0.00,,---,0.00,VWS V12.07,2013-06-23 13:40:00,
2013-06-23 06:43:00,49.8,43.9,29.65,NNW,330,0.0,31.0,80,0.00,,---,0.00,VWS V12.07,2013-06-23 13:43:00,
2013-06-23 06:44:00,49.9,44.0,29.65,NNW,330,0.0,31.0,80,0.00,,---,0.00,VWS V12.07,2013-06-23 13:44:00,
2013-06-23 06:45:00,49.9,44.0,29.64,NNW,330,0.0,31.0,80,0.00,,---,0.00,VWS V12.07,2013-06-23 13:45:00,
2013-06-23 06:48:00,50.1,44.2,29.64,NNW,330,0.0,31.0,80,0.00,,---,0.00,VWS V12.07,2013-06-23 13:48:00,
2013-06-23 06:49:00,50.1,44.2,29.64,NNW,330,0.0,31.0,80,0.00,,---,0.00,VWS V12.07,2013-06-23 13:49:00,
2013-06-23 06:50:00,50.2,44.3,29.64,NNW,330,0.0,31.0,80,0.00,,---,0.00,VWS V12.07,2013-06-23 13:50:00,
2013-06-23 06:51:00,50.2,44.3,29.64,NNW,330,0.0,31.0,80,0.00,,---,0.00,VWS V12.07,2013-06-23 13:51:00,
2013-06-23 06:53:00,50.4,44.5,29.64,NNW,330,0.0,31.0,80,0.00,,---,0.00,VWS V12.07,2013-06-23 13:53:00,
2013-06-23 06:54:00,50.4,44.5,29.64,NNW,330,0.0,31.0,80,0.00,,---,0.00,VWS V12.07,2013-06-23 13:54:00,
2013-06-23 06:56:00,50.4,44.5,29.64,NNW,330,0.0,31.0,80,0.00,,---,0.00,VWS V12.07,2013-06-23 13:56:00,
2013-06-23 06:58:00,50.5,44.6,29.64,NNW,330,0.0,31.0,80,0.00,,---,0.00,VWS V12.07,2013-06-23 13:58:00,
2013-06-23 06:59:00,50.5,44.6,29.63,NNW,330,0.0,31.0,80,0.00,,---,0.00,VWS V12.07,2013-06-23 13:59:00,
2013-06-23 07:00:00,50.5,44.6,29.63,NNW,330,0.0,31.0,80,0.00,,---,0.00,VWS V12.07,2013-06-23 14:00:00,
2013-06-23 07:01:00,50.5,44.6,29.63,NNW,330,0.0,31.0,80,0.00,,---,0.00,VWS V12.07,2013-06-23 14:01:00,
2013-06-23 07:03:00,50.7,44.8,29.63,NNW,330,0.0,31.0,80,0.00,,---,0.00,VWS V12.07,2013-06-23 14:03:00,
2013-06-23 07:04:00,50.7,44.8,29.63,NNW,330,0.0,31.0,80,0.00,,---,0.00,VWS V12.07,2013-06-23 14:04:00,
2013-06-23 07:05:00,50.7,44.8,29.63,NNW,330,0.0,31.0,80,0.00,,---,0.00,VWS V12.07,2013-06-23 14:05:00,
2013-06-23 07:06:00,50.7,44.8,29.63,NNW,330,0.0,31.0,80,0.00,,---,0.00,VWS V12.07,2013-06-23 14:06:00,
2013-06-23 07:08:00,50.8,44.9,29.63,NNW,330,0.0,31.0,80,0.00,,---,0.00,VWS V12.07,2013-06-23 14:08:00,
2013-06-23 07:09:00,50.8,44.9,29.63,NNW,330,0.0,31.0,80,0.00,,---,0.00,VWS V12.07,2013-06-23 14:09:00,
2013-06-23 07:10:00,50.8,44.9,29.63,NNW,330,0.0,31.0,80,0.00,,---,0.00,VWS V12.07,2013-06-23 14:10:00,
2013-06-23 07:11:00,51.0,45.1,29.63,NNW,330,0.0,31.0,80,0.00,,---,0.00,VWS V12.07,2013-06-23 14:11:00,
2013-06-23 07:12:00,51.0,45.1,29.63,NNW,330,0.0,31.0,80,0.00,,---,0.00,VWS V12.07,2013-06-23 14:12:00,
2013-06-23 07:13:00,51.0,45.1,29.63,NNW,330,0.0,31.0,80,0.00,,---,0.00,VWS V12.07,2013-06-23 14:13:00,
2013-06-23 07:14:00,51.0,45.1,29.63,NNW,330,0.0,31.0,80,0.00,,---,0.00,VWS V12.07,2013-06-23 14:14:00,
2013-06-23 07:15:00,51.0,45.1,29.63,NNW,330,0.0,31.0,80,0.00,,---,0.00,VWS V12.07,2013-06-23 14:15:00,
2013-06-23 07:16:00,51.1,45.2,29.63,NNW,330,0.0,31.0,80,0.00,,---,0.00,VWS V12.07,2013-06-23 14:16:00,
2013-06-23 07:18:00,51.1,45.2,29.63,NNW,330,0.0,31.0,80,0.00,,---,0.00,VWS V12.07,2013-06-23 14:18:00,
2013-06-23 07:20:00,51.3,45.3,29.63,NNW,330,0.0,31.0,80,0.00,,---,0.00,VWS V12.07,2013-06-23 14:20:00,
2013-06-23 07:22:00,51.3,45.3,29.63,NNW,330,0.0,31.0,80,0.00,,---,0.00,VWS V12.07,2013-06-23 14:22:00,
2013-06-23 07:23:00,51.3,45.3,29.63,NNW,330,0.0,31.0,80,0.00,,---,0.00,VWS V12.07,2013-06-23 14:23:00,
2013-06-23 07:24:00,51.3,45.3,29.63,NNW,330,0.0,31.0,80,0.00,,---,0.00,VWS V12.07,2013-06-23 14:24:00,
2013-06-23 07:25:00,51.3,45.3,29.63,NNW,330,0.0,31.0,80,0.00,,---,0.00,VWS V12.07,2013-06-23 14:25:00,
2013-06-23 07:26:00,51.3,45.3,29.63,NNW,330,0.0,31.0,80,0.00,,---,0.00,VWS V12.07,2013-06-23 14:26:00,
2013-06-23 07:28:00,51.4,45.5,29.63,NNW,330,0.0,31.0,80,0.00,,---,0.00,VWS V12.07,2013-06-23 14:28:00,
2013-06-23 07:29:00,51.4,45.5,29.63,NNW,330,0.0,31.0,80,0.00,,---,0.00,VWS V12.07,2013-06-23 14:29:00,
2013-06-23 07:30:00,51.4,45.5,29.63,NNW,330,0.0,31.0,80,0.00,,---,0.00,VWS V12.07,2013-06-23 14:30:00,
2013-06-23 07:33:00,51.6,45.6,29.63,NNW,330,0.0,31.0,80,0.00,,---,0.00,VWS V12.07,2013-06-23 14:33:00,
2013-06-23 07:34:00,51.6,45.6,29.63,NNW,330,0.0,31.0,80,0.00,,---,0.00,VWS V12.07,2013-06-23 14:34:00,
2013-06-23 07:35:00,51.6,45.6,29.63,NNW,330,0.0,31.0,80,0.00,,---,0.00,VWS V12.07,2013-06-23 14:35:00,
2013-06-23 07:38:00,51.6,45.6,29.63,NNW,330,0.0,31.0,80,0.00,,---,0.00,VWS V12.07,2013-06-23 14:38:00,
2013-06-23 07:39:00,51.7,45.7,29.63,NNW,330,0.0,31.0,80,0.00,,---,0.00,VWS V12.07,2013-06-23 14:39:00,
2013-06-23 07:41:00,51.7,45.7,29.63,NNW,330,0.0,31.0,80,0.00,,---,0.00,VWS V12.07,2013-06-23 14:41:00,
2013-06-23 07:43:00,51.7,45.7,29.63,NNW,330,0.0,31.0,80,0.00,,---,0.00,VWS V12.07,2013-06-23 14:43:00,
2013-06-23 07:44:00,51.7,45.7,29.63,NNW,330,0.0,31.0,80,0.00,,---,0.00,VWS V12.07,2013-06-23 14:44:00,
2013-06-23 07:45:00,51.7,45.4,29.63,NNW,330,0.0,31.0,79,0.00,,---,0.00,VWS V12.07,2013-06-23 14:45:00,
2013-06-23 07:46:00,51.9,45.6,29.63,NNW,330,0.0,31.0,79,0.00,,---,0.00,VWS V12.07,2013-06-23 14:46:00,
2013-06-23 07:48:00,51.9,45.6,29.63,NNW,330,0.0,31.0,79,0.00,,---,0.00,VWS V12.07,2013-06-23 14:48:00,
2013-06-23 07:49:00,51.9,45.6,29.63,NNW,330,0.0,31.0,79,0.00,,---,0.00,VWS V12.07,2013-06-23 14:49:00,
2013-06-23 07:50:00,52.0,45.7,29.63,NNW,330,0.0,31.0,79,0.00,,---,0.00,VWS V12.07,2013-06-23 14:50:00,
2013-06-23 07:51:00,52.0,45.7,29.63,NNW,330,0.0,31.0,79,0.00,,---,0.00,VWS V12.07,2013-06-23 14:51:00,
2013-06-23 07:52:00,52.0,45.4,29.63,NNW,330,0.0,31.0,78,0.00,,---,0.00,VWS V12.07,2013-06-23 14:52:00,
2013-06-23 07:53:00,52.0,45.4,29.63,NNW,330,0.0,31.0,78,0.00,,---,0.00,VWS V12.07,2013-06-23 14:53:00,
2013-06-23 07:55:00,52.2,45.6,29.63,NNW,330,0.0,31.0,78,0.00,,---,0.00,VWS V12.07,2013-06-23 14:55:00,
2013-06-23 07:56:00,52.2,45.6,29.63,NNW,330,0.0,31.0,78,0.00,,---,0.00,VWS V12.07,2013-06-23 14:56:00,
2013-06-23 07:57:00,52.2,45.6,29.63,NNW,330,0.0,31.0,78,0.00,,---,0.00,VWS V12.07,2013-06-23 14:57:00,
2013-06-23 07:59:00,52.3,45.7,29.63,NNW,330,0.0,31.0,78,0.00,,---,0.00,VWS V12.07,2013-06-23 14:59:00,
2013-06-23 08:03:00,52.6,46.0,29.63,NNW,330,0.0,31.0,78,0.00,,---,0.00,VWS V12.07,2013-06-23 15:03:00,
2013-06-23 08:04:00,52.6,46.0,29.63,NNW,330,0.0,31.0,78,0.00,,---,0.00,VWS V12.07,2013-06-23 15:04:00,
2013-06-23 08:09:00,52.8,46.1,29.63,NNW,330,0.0,31.0,78,0.00,,---,0.00,VWS V12.07,2013-06-23 15:09:00,
2013-06-23 08:10:00,52.9,46.2,29.63,NNW,330,0.0,31.0,78,0.00,,---,0.00,VWS V12.07,2013-06-23 15:10:00,
2013-06-23 08:14:00,53.1,46.4,29.63,NNW,330,0.0,31.0,78,0.00,,---,0.00,VWS V12.07,2013-06-23 15:14:00,
2013-06-23 08:15:00,53.1,46.4,29.64,NNW,330,0.0,31.0,78,0.00,,---,0.00,VWS V12.07,2013-06-23 15:15:00,
2013-06-23 08:19:00,53.2,46.2,29.64,NNW,330,0.0,31.0,77,0.00,,---,0.00,VWS V12.07,2013-06-23 15:19:00,
2013-06-23 08:20:00,53.2,46.2,29.64,NNW,330,0.0,31.0,77,0.00,,---,0.00,VWS V12.07,2013-06-23 15:20:00,
2013-06-23 08:21:00,53.2,46.2,29.64,NNW,330,0.0,31.0,77,0.00,,---,0.00,VWS V12.07,2013-06-23 15:21:00,
2013-06-23 08:24:00,53.3,46.3,29.64,NNW,330,0.0,31.0,77,0.00,,---,0.00,VWS V12.07,2013-06-23 15:24:00,
2013-06-23 08:25:00,53.3,46.3,29.64,NNW,330,0.0,31.0,77,0.00,,---,0.00,VWS V12.07,2013-06-23 15:25:00,
2013-06-23 08:26:00,53.3,46.3,29.64,NNW,330,0.0,31.0,77,0.00,,---,0.00,VWS V12.07,2013-06-23 15:26:00,
2013-06-23 08:30:00,53.3,46.3,29.64,NNW,330,0.0,31.0,77,0.00,,---,0.00,VWS V12.07,2013-06-23 15:30:00,
2013-06-23 08:31:00,53.3,46.3,29.64,NNW,330,0.0,31.0,77,0.00,,---,0.00,VWS V12.07,2013-06-23 15:31:00,
2013-06-23 08:32:00,53.3,46.3,29.64,NNW,330,0.0,31.0,77,0.00,,---,0.00,VWS V12.07,2013-06-23 15:32:00,
2013-06-23 08:35:00,53.5,46.8,29.64,NNW,330,0.0,31.0,78,0.00,,---,0.00,VWS V12.07,2013-06-23 15:35:00,
2013-06-23 08:36:00,53.5,46.8,29.64,NNW,330,0.0,31.0,78,0.00,,---,0.00,VWS V12.07,2013-06-23 15:36:00,
2013-06-23 08:37:00,53.5,46.8,29.64,NNW,330,0.0,31.0,78,0.00,,---,0.00,VWS V12.07,2013-06-23 15:37:00,
2013-06-23 08:38:00,53.5,46.8,29.64,NNW,330,0.0,31.0,78,0.00,,---,0.00,VWS V12.07,2013-06-23 15:38:00,
2013-06-23 08:40:00,53.5,46.8,29.64,NNW,330,0.0,31.0,78,0.00,,---,0.00,VWS V12.07,2013-06-23 15:40:00,
2013-06-23 08:42:00,53.6,47.3,29.64,NNW,330,0.0,31.0,79,0.00,,---,0.00,VWS V12.07,2013-06-23 15:42:00,
2013-06-23 08:43:00,53.6,47.3,29.64,NNW,330,0.0,31.0,79,0.00,,---,0.00,VWS V12.07,2013-06-23 15:43:00,
2013-06-23 08:45:00,53.6,47.3,29.63,NNW,330,0.0,31.0,79,0.00,,---,0.00,VWS V12.07,2013-06-23 15:45:00,
2013-06-23 08:46:00,53.6,46.9,29.63,NNW,330,0.0,31.0,78,0.00,,---,0.00,VWS V12.07,2013-06-23 15:46:00,
2013-06-23 08:47:00,53.6,46.9,29.63,NNW,330,0.0,31.0,78,0.00,,---,0.00,VWS V12.07,2013-06-23 15:47:00,
2013-06-23 08:48:00,53.6,46.9,29.63,NNW,330,0.0,31.0,78,0.00,,---,0.00,VWS V12.07,2013-06-23 15:48:00,
2013-06-23 08:49:00,53.8,47.1,29.63,NNW,330,1.0,31.0,78,0.00,,---,0.00,VWS V12.07,2013-06-23 15:49:00,
2013-06-23 08:50:00,53.8,47.1,29.63,NNW,330,0.0,31.0,78,0.00,,---,0.00,VWS V12.07,2013-06-23 15:50:00,
2013-06-23 08:51:00,53.8,47.1,29.63,NNW,330,0.0,31.0,78,0.00,,---,0.00,VWS V12.07,2013-06-23 15:51:00,
2013-06-23 08:53:00,53.8,47.1,29.63,NNW,330,0.0,31.0,78,0.00,,---,0.00,VWS V12.07,2013-06-23 15:53:00,
2013-06-23 08:54:00,53.9,47.5,29.63,NNW,330,0.0,31.0,79,0.00,,---,0.00,VWS V12.07,2013-06-23 15:54:00,
2013-06-23 08:57:00,53.9,47.5,29.63,NNW,330,0.0,31.0,79,0.00,,---,0.00,VWS V12.07,2013-06-23 15:57:00,
2013-06-23 08:58:00,53.9,46.9,29.63,NNW,330,0.0,31.0,77,0.00,,---,0.00,VWS V12.07,2013-06-23 15:58:00,
2013-06-23 09:00:00,53.9,46.9,29.63,NNW,330,0.0,31.0,77,0.00,,---,0.00,VWS V12.07,2013-06-23 16:00:00,
2013-06-23 09:03:00,53.9,46.5,29.63,NNW,330,0.0,31.0,76,0.00,,---,0.00,VWS V12.07,2013-06-23 16:03:00,
2013-06-23 09:04:00,53.9,46.2,29.63,NNW,330,0.0,31.0,75,0.00,,---,0.00,VWS V12.07,2013-06-23 16:04:00,
2013-06-23 09:05:00,53.9,45.8,29.63,NNW,330,0.0,31.0,74,0.00,,---,0.00,VWS V12.07,2013-06-23 16:05:00,
2013-06-23 09:08:00,53.9,46.5,29.63,NNW,329,2.0,31.0,76,0.00,,---,0.00,VWS V12.07,2013-06-23 16:08:00,
2013-06-23 09:09:00,53.9,46.2,29.63,NNW,329,0.0,31.0,75,0.00,,---,0.00,VWS V12.07,2013-06-23 16:09:00,
2013-06-23 09:10:00,53.9,45.8,29.63,NNW,329,2.0,31.0,74,0.00,,---,0.00,VWS V12.07,2013-06-23 16:10:00,
2013-06-23 09:13:00,54.1,46.4,29.63,NNW,329,2.0,31.0,75,0.00,,---,0.00,VWS V12.07,2013-06-23 16:13:00,
2013-06-23 09:14:00,54.1,46.4,29.63,NNW,329,2.0,31.0,75,0.00,,---,0.00,VWS V12.07,2013-06-23 16:14:00,
2013-06-23 09:15:00,53.9,45.5,29.65,NNW,329,2.0,31.0,73,0.00,,---,0.00,VWS V12.07,2013-06-23 16:15:00,
2013-06-23 09:18:00,54.1,46.0,29.65,NNW,329,2.0,31.0,74,0.00,,---,0.00,VWS V12.07,2013-06-23 16:18:00,
2013-06-23 09:19:00,54.1,46.0,29.65,NNW,328,2.0,31.0,74,0.00,,---,0.00,VWS V12.07,2013-06-23 16:19:00,
2013-06-23 09:20:00,54.1,45.7,29.65,NNW,328,2.0,31.0,73,0.00,,---,0.00,VWS V12.07,2013-06-23 16:20:00,
2013-06-23 09:23:00,54.1,45.7,29.65,NW,323,3.0,31.0,73,0.00,,---,0.00,VWS V12.07,2013-06-23 16:23:00,
2013-06-23 09:24:00,54.1,45.7,29.65,NW,322,5.0,31.0,73,0.00,,---,0.00,VWS V12.07,2013-06-23 16:24:00,
2013-06-23 09:26:00,54.1,44.9,29.65,NW,311,3.0,31.0,71,0.00,,---,0.00,VWS V12.07,2013-06-23 16:26:00,
2013-06-23 09:28:00,54.2,45.8,29.65,NW,309,3.0,31.0,73,0.00,,---,0.00,VWS V12.07,2013-06-23 16:28:00,
2013-06-23 09:29:00,54.2,45.4,29.65,NW,305,2.0,31.0,72,0.00,,---,0.00,VWS V12.07,2013-06-23 16:29:00,
2013-06-23 09:30:00,54.2,45.4,29.65,NW,304,3.0,31.0,72,0.00,,---,0.00,VWS V12.07,2013-06-23 16:30:00,
2013-06-23 09:32:00,54.4,46.7,29.65,NW,304,1.0,31.0,75,0.00,,---,0.00,VWS V12.07,2013-06-23 16:32:00,
2013-06-23 09:33:00,54.5,46.8,29.65,NW,304,3.0,31.0,75,0.00,,---,0.00,VWS V12.07,2013-06-23 16:33:00,
2013-06-23 09:35:00,54.5,46.0,29.65,NW,304,2.0,31.0,73,0.00,,---,0.00,VWS V12.07,2013-06-23 16:35:00,
2013-06-23 09:36:00,54.5,46.0,29.65,NW,304,0.0,31.0,73,0.00,,---,0.00,VWS V12.07,2013-06-23 16:36:00,
2013-06-23 09:39:00,54.8,47.0,29.65,NW,304,1.0,31.0,75,0.00,,---,0.00,VWS V12.07,2013-06-23 16:39:00,
2013-06-23 09:40:00,54.8,47.0,29.65,NW,304,2.0,31.0,75,0.00,,---,0.00,VWS V12.07,2013-06-23 16:40:00,
2013-06-23 09:41:00,54.7,45.9,29.65,WNW,294,2.0,31.0,72,0.00,,---,0.00,VWS V12.07,2013-06-23 16:41:00,
2013-06-23 09:44:00,54.7,45.9,29.65,WNW,285,2.0,31.0,72,0.00,,---,0.00,VWS V12.07,2013-06-23 16:44:00,
2013-06-23 09:45:00,54.7,45.1,29.65,SSW,202,2.0,31.0,70,0.00,,---,0.00,VWS V12.07,2013-06-23 16:45:00,
2013-06-23 09:46:00,54.7,44.7,29.65,SSW,202,5.0,31.0,69,0.00,,---,0.00,VWS V12.07,2013-06-23 16:46:00,
2013-06-23 09:47:00,54.5,44.5,29.65,SSW,202,5.0,31.0,69,0.00,,---,0.00,VWS V12.07,2013-06-23 16:47:00,
2013-06-23 09:49:00,54.7,46.6,29.65,SSW,202,1.0,31.0,74,0.00,,---,0.00,VWS V12.07,2013-06-23 16:49:00,
2013-06-23 09:50:00,54.7,46.6,29.65,SSW,202,5.0,31.0,74,0.00,,---,0.00,VWS V12.07,2013-06-23 16:50:00,
2013-06-23 09:51:00,54.5,45.3,29.65,SSW,195,2.0,31.0,71,0.00,,---,0.00,VWS V12.07,2013-06-23 16:51:00,
2013-06-23 09:52:00,54.5,46.4,29.65,SSW,195,2.0,31.0,74,0.00,,---,0.00,VWS V12.07,2013-06-23 16:52:00,
2013-06-23 09:54:00,54.5,45.3,29.65,SSW,195,1.0,31.0,71,0.00,,---,0.00,VWS V12.07,2013-06-23 16:54:00,
2013-06-23 09:56:00,54.5,45.7,29.65,SSW,195,4.0,31.0,72,0.00,,---,0.00,VWS V12.07,2013-06-23 16:56:00,
2013-06-23 09:57:00,54.7,46.2,29.65,SSW,195,0.0,31.0,73,0.00,,---,0.00,VWS V12.07,2013-06-23 16:57:00,
2013-06-23 09:58:00,54.7,46.6,29.65,SSW,195,1.0,31.0,74,0.00,,---,0.00,VWS V12.07,2013-06-23 16:58:00,
2013-06-23 10:03:00,54.7,45.5,29.65,SSW,195,2.0,31.0,71,0.00,,---,0.00,VWS V12.07,2013-06-23 17:03:00,
2013-06-23 10:04:00,54.7,45.9,29.65,SSW,195,3.0,31.0,72,0.00,,---,0.00,VWS V12.07,2013-06-23 17:04:00,
2013-06-23 10:08:00,54.7,45.9,29.65,SSW,195,4.0,31.0,72,0.00,,---,0.00,VWS V12.07,2013-06-23 17:08:00,
2013-06-23 10:09:00,54.7,45.9,29.65,SSW,193,2.0,31.0,72,0.00,,---,0.00,VWS V12.07,2013-06-23 17:09:00,
2013-06-23 10:13:00,54.8,46.0,29.65,SSW,196,2.0,31.0,72,0.00,,---,0.00,VWS V12.07,2013-06-23 17:13:00,
2013-06-23 10:14:00,54.8,46.0,29.65,SSW,196,2.0,31.0,72,0.00,,---,0.00,VWS V12.07,2013-06-23 17:14:00,
2013-06-23 10:15:00,55.0,46.2,29.65,SSW,196,0.0,31.0,72,0.00,,---,0.00,VWS V12.07,2013-06-23 17:15:00,
2013-06-23 10:19:00,55.1,45.9,29.65,SSW,192,0.0,31.0,71,0.00,,---,0.00,VWS V12.07,2013-06-23 17:19:00,
2013-06-23 10:20:00,55.3,46.4,29.65,SSW,192,2.0,31.0,72,0.00,,---,0.00,VWS V12.07,2013-06-23 17:20:00,
2013-06-23 10:24:00,55.6,47.1,29.65,SSW,192,1.0,31.0,73,0.00,,---,0.00,VWS V12.07,2013-06-23 17:24:00,
2013-06-23 10:25:00,55.6,47.1,29.65,SSW,192,0.0,31.0,73,0.00,,---,0.00,VWS V12.07,2013-06-23 17:25:00,
2013-06-23 10:29:00,56.0,47.5,29.64,SSW,192,0.0,31.0,73,0.00,,---,0.00,VWS V12.07,2013-06-23 17:29:00,
2013-06-23 10:30:00,56.0,47.5,29.64,SSW,192,3.0,31.0,73,0.00,,---,0.00,VWS V12.07,2013-06-23 17:30:00,
2013-06-23 10:34:00,56.2,46.6,29.64,SSW,192,3.0,31.0,70,0.00,,---,0.00,VWS V12.07,2013-06-23 17:34:00,
2013-06-23 10:35:00,56.2,46.6,29.64,SSW,192,5.0,31.0,70,0.00,,---,0.00,VWS V12.07,2013-06-23 17:35:00,
2013-06-23 10:36:00,56.2,45.8,29.64,South,189,0.0,31.0,68,0.00,,---,0.00,VWS V12.07,2013-06-23 17:36:00,
2013-06-23 10:39:00,56.5,47.2,29.64,SSW,192,5.0,31.0,71,0.00,,---,0.00,VWS V12.07,2013-06-23 17:39:00,
2013-06-23 10:40:00,56.3,47.0,29.64,SSW,192,2.0,31.0,71,0.00,,---,0.00,VWS V12.07,2013-06-23 17:40:00,
2013-06-23 10:41:00,56.5,46.8,29.64,SSW,192,5.0,31.0,70,0.00,,---,0.00,VWS V12.07,2013-06-23 17:41:00,
2013-06-23 10:42:00,56.6,46.9,29.64,SSW,192,2.0,31.0,70,0.00,,---,0.00,VWS V12.07,2013-06-23 17:42:00,
2013-06-23 10:45:00,56.6,46.6,29.62,South,189,3.0,31.0,69,0.00,,---,0.00,VWS V12.07,2013-06-23 17:45:00,
2013-06-23 10:46:00,56.6,46.6,29.62,South,189,3.0,31.0,69,0.00,,---,0.00,VWS V12.07,2013-06-23 17:46:00,
2013-06-23 10:49:00,56.6,46.2,29.62,South,184,5.0,31.0,68,0.00,,---,0.00,VWS V12.07,2013-06-23 17:49:00,
2013-06-23 10:50:00,56.7,47.0,29.62,South,185,5.0,31.0,70,0.00,,---,0.00,VWS V12.07,2013-06-23 17:50:00,
2013-06-23 10:51:00,56.9,47.6,29.62,South,182,2.0,31.0,71,0.00,,---,0.00,VWS V12.07,2013-06-23 17:51:00,
2013-06-23 10:56:00,57.2,47.9,29.62,South,189,4.0,31.0,71,0.00,,---,0.00,VWS V12.07,2013-06-23 17:56:00,
2013-06-23 10:57:00,57.2,47.1,29.62,South,188,2.0,31.0,69,0.00,,---,0.00,VWS V12.07,2013-06-23 17:57:00,
2013-06-23 11:01:00,57.5,47.4,29.62,South,185,2.0,31.0,69,0.00,,---,0.00,VWS V12.07,2013-06-23 18:01:00,
2013-06-23 11:02:00,57.6,47.5,29.62,South,185,1.0,31.0,69,0.00,,---,0.00,VWS V12.07,2013-06-23 18:02:00,
2013-06-23 11:06:00,58.1,49.1,29.62,SSW,202,6.0,31.0,72,0.00,,---,0.00,VWS V12.07,2013-06-23 18:06:00,
2013-06-23 11:08:00,58.1,47.6,29.62,South,188,6.0,31.0,68,0.00,,---,0.00,VWS V12.07,2013-06-23 18:08:00,
2013-06-23 11:11:00,58.6,48.1,29.62,South,185,2.0,31.0,68,0.00,,---,0.00,VWS V12.07,2013-06-23 18:11:00,
2013-06-23 11:12:00,58.6,48.1,29.62,South,185,1.0,31.0,68,0.00,,---,0.00,VWS V12.07,2013-06-23 18:12:00,
2013-06-23 11:13:00,58.7,48.2,29.62,South,184,2.0,31.0,68,0.00,,---,0.00,VWS V12.07,2013-06-23 18:13:00,
2013-06-23 11:16:00,59.0,48.1,29.61,South,184,5.0,31.0,67,0.00,,---,0.00,VWS V12.07,2013-06-23 18:16:00,
2013-06-23 11:17:00,59.0,48.1,29.61,South,184,4.0,31.0,67,0.00,,---,0.00,VWS V12.07,2013-06-23 18:17:00,
2013-06-23 11:18:00,59.2,48.7,29.61,South,184,5.0,31.0,68,0.00,,---,0.00,VWS V12.07,2013-06-23 18:18:00,
2013-06-23 11:20:00,59.3,48.4,29.61,SSW,195,5.0,31.0,67,0.00,,---,0.00,VWS V12.07,2013-06-23 18:20:00,
2013-06-23 11:21:00,59.5,49.3,29.61,SSW,213,2.0,31.0,69,0.00,,---,0.00,VWS V12.07,2013-06-23 18:21:00,
2013-06-23 11:22:00,59.5,49.3,29.61,SSW,213,2.0,31.0,69,0.00,,---,0.00,VWS V12.07,2013-06-23 18:22:00,
2013-06-23 11:24:00,59.5,48.5,29.61,SSW,213,4.0,31.0,67,0.00,,---,0.00,VWS V12.07,2013-06-23 18:24:00,
2013-06-23 11:25:00,59.5,48.5,29.61,SSW,212,7.0,31.0,67,0.00,,---,0.00,VWS V12.07,2013-06-23 18:25:00,
2013-06-23 11:27:00,59.5,47.7,29.61,South,188,4.0,31.0,65,0.00,,---,0.00,VWS V12.07,2013-06-23 18:27:00,
2013-06-23 11:29:00,59.5,48.2,29.60,South,178,5.0,31.0,66,0.00,,---,0.00,VWS V12.07,2013-06-23 18:29:00,
2013-06-23 11:30:00,59.5,47.7,29.60,SSW,200,5.0,31.0,65,0.00,,---,0.00,VWS V12.07,2013-06-23 18:30:00,
2013-06-23 11:32:00,59.5,48.2,29.60,South,188,2.0,31.0,66,0.00,,---,0.00,VWS V12.07,2013-06-23 18:32:00,
2013-06-23 11:33:00,59.5,48.2,29.60,South,171,5.0,31.0,66,0.00,,---,0.00,VWS V12.07,2013-06-23 18:33:00,
2013-06-23 11:34:00,59.6,48.6,29.60,South,172,2.0,31.0,67,0.00,,---,0.00,VWS V12.07,2013-06-23 18:34:00,
2013-06-23 11:36:00,59.9,48.9,29.60,South,174,0.0,31.0,67,0.00,,---,0.00,VWS V12.07,2013-06-23 18:36:00,
2013-06-23 11:37:00,60.1,49.5,29.60,South,174,0.0,31.0,68,0.00,,---,0.00,VWS V12.07,2013-06-23 18:37:00,
2013-06-23 11:38:00,60.1,49.5,29.60,South,174,0.0,31.0,68,0.00,,---,0.00,VWS V12.07,2013-06-23 18:38:00,
2013-06-23 11:39:00,60.2,48.0,29.60,South,178,2.0,31.0,64,0.00,,---,0.00,VWS V12.07,2013-06-23 18:39:00,
2013-06-23 11:41:00,60.4,48.6,29.60,South,178,4.0,31.0,65,0.00,,---,0.00,VWS V12.07,2013-06-23 18:41:00,
2013-06-23 11:42:00,60.5,48.7,29.60,South,178,3.0,31.0,65,0.00,,---,0.00,VWS V12.07,2013-06-23 18:42:00,
2013-06-23 11:43:00,60.7,48.5,29.60,South,179,6.0,31.0,64,0.00,,---,0.00,VWS V12.07,2013-06-23 18:43:00,
2013-06-23 11:44:00,60.7,46.8,29.60,South,171,2.0,31.0,60,0.00,,---,0.00,VWS V12.07,2013-06-23 18:44:00,
2013-06-23 11:46:00,60.5,48.3,29.60,SSW,205,9.0,31.0,64,0.00,,---,0.00,VWS V12.07,2013-06-23 18:46:00,
2013-06-23 11:47:00,60.4,48.2,29.60,South,176,10.0,31.0,64,0.00,,---,0.00,VWS V12.07,2013-06-23 18:47:00,
2013-06-23 11:48:00,60.4,47.3,29.60,South,188,6.0,31.0,62,0.00,,---,0.00,VWS V12.07,2013-06-23 18:48:00,
2013-06-23 11:50:00,60.4,46.9,29.60,SSW,205,0.0,31.0,61,0.00,,---,0.00,VWS V12.07,2013-06-23 18:50:00,
2013-06-23 11:51:00,60.2,46.3,29.60,SSW,205,2.0,31.0,60,0.00,,---,0.00,VWS V12.07,2013-06-23 18:51:00,
2013-06-23 11:52:00,60.2,46.3,29.60,SSW,202,2.0,31.0,60,0.00,,---,0.00,VWS V12.07,2013-06-23 18:52:00,
2013-06-23 11:53:00,60.2,47.6,29.60,SSW,205,5.0,31.0,63,0.00,,---,0.00,VWS V12.07,2013-06-23 18:53:00,
2013-06-23 11:55:00,59.9,45.1,29.60,SW,215,6.0,31.0,58,0.00,,---,0.00,VWS V12.07,2013-06-23 18:55:00,
2013-06-23 11:56:00,59.9,46.0,29.60,SSW,206,5.0,31.0,60,0.00,,---,0.00,VWS V12.07,2013-06-23 18:56:00,
2013-06-23 11:57:00,59.8,46.3,29.60,SSW,196,7.0,31.0,61,0.00,,---,0.00,VWS V12.07,2013-06-23 18:57:00,
2013-06-23 11:58:00,59.8,47.2,29.60,SSW,198,5.0,31.0,63,0.00,,---,0.00,VWS V12.07,2013-06-23 18:58:00,
2013-06-23 11:59:00,59.9,47.3,29.59,SSW,195,1.0,31.0,63,0.00,,---,0.00,VWS V12.07,2013-06-23 18:59:00,
2013-06-23 12:01:00,60.1,48.3,29.59,SSW,198,8.0,31.0,65,0.00,,---,0.00,VWS V12.07,2013-06-23 19:01:00,
2013-06-23 12:02:00,59.9,48.1,29.59,SSW,213,0.0,31.0,65,0.00,,---,0.00,VWS V12.07,2013-06-23 19:02:00,
2013-06-23 12:03:00,59.9,45.5,29.59,SSW,213,2.0,31.0,59,0.00,,---,0.00,VWS V12.07,2013-06-23 19:03:00,
2013-06-23 12:05:00,60.1,46.6,29.59,SSW,213,4.0,31.0,61,0.00,,---,0.00,VWS V12.07,2013-06-23 19:05:00,
2013-06-23 12:06:00,60.1,46.6,29.59,South,185,2.0,31.0,61,0.00,,---,0.00,VWS V12.07,2013-06-23 19:06:00,
2013-06-23 12:07:00,60.1,46.6,29.59,South,185,3.0,31.0,61,0.00,,---,0.00,VWS V12.07,2013-06-23 19:07:00,
2013-06-23 12:08:00,60.2,46.7,29.59,SE,144,2.0,31.0,61,0.00,,---,0.00,VWS V12.07,2013-06-23 19:08:00,
2013-06-23 12:10:00,60.2,45.4,29.59,South,188,2.0,31.0,58,0.00,,---,0.00,VWS V12.07,2013-06-23 19:10:00,
2013-06-23 12:12:00,60.1,45.3,29.59,South,171,6.0,31.0,58,0.00,,---,0.00,VWS V12.07,2013-06-23 19:12:00,
2013-06-23 12:13:00,60.1,45.7,29.59,SSW,193,7.0,31.0,59,0.00,,---,0.00,VWS V12.07,2013-06-23 19:13:00,
2013-06-23 12:16:00,59.9,45.5,29.60,NW,320,1.0,31.0,59,0.00,,---,0.00,VWS V12.07,2013-06-23 19:16:00,
2013-06-23 12:17:00,59.9,45.5,29.60,SW,217,6.0,31.0,59,0.00,,---,0.00,VWS V12.07,2013-06-23 19:17:00,
2013-06-23 12:18:00,59.8,45.0,29.60,SW,217,6.0,31.0,58,0.00,,---,0.00,VWS V12.07,2013-06-23 19:18:00,
2013-06-23 12:19:00,59.6,44.8,29.60,South,169,12.0,31.0,58,0.00,,---,0.00,VWS V12.07,2013-06-23 19:19:00,
2013-06-23 12:21:00,59.5,45.2,29.60,South,189,4.0,31.0,59,0.00,,---,0.00,VWS V12.07,2013-06-23 19:21:00,
2013-06-23 12:22:00,59.5,46.9,29.60,SSE,151,4.0,31.0,63,0.00,,---,0.00,VWS V12.07,2013-06-23 19:22:00,
2013-06-23 12:23:00,59.5,46.9,29.60,South,179,6.0,31.0,63,0.00,,---,0.00,VWS V12.07,2013-06-23 19:23:00,
2013-06-23 12:24:00,59.6,46.2,29.60,SSW,195,5.0,31.0,61,0.00,,---,0.00,VWS V12.07,2013-06-23 19:24:00,
2013-06-23 12:26:00,59.6,45.7,29.60,SSW,196,3.0,31.0,60,0.00,,---,0.00,VWS V12.07,2013-06-23 19:26:00,
2013-06-23 12:28:00,59.5,45.6,29.60,South,185,6.0,31.0,60,0.00,,---,0.00,VWS V12.07,2013-06-23 19:28:00,
2013-06-23 12:30:00,59.3,45.9,29.60,SSW,196,5.0,31.0,61,0.00,,---,0.00,VWS V12.07,2013-06-23 19:30:00,
2013-06-23 12:31:00,59.3,45.9,29.60,SSW,195,2.0,31.0,61,0.00,,---,0.00,VWS V12.07,2013-06-23 19:31:00,
2013-06-23 12:33:00,59.6,46.2,29.60,South,189,5.0,31.0,61,0.00,,---,0.00,VWS V12.07,2013-06-23 19:33:00,
2013-06-23 12:34:00,59.5,46.9,29.60,South,189,4.0,31.0,63,0.00,,---,0.00,VWS V12.07,2013-06-23 19:34:00,
2013-06-23 12:36:00,59.6,47.0,29.60,South,184,2.0,31.0,63,0.00,,---,0.00,VWS V12.07,2013-06-23 19:36:00,
2013-06-23 12:37:00,59.6,46.6,29.60,South,186,5.0,31.0,62,0.00,,---,0.00,VWS V12.07,2013-06-23 19:37:00,
2013-06-23 12:38:00,59.5,47.3,29.60,South,186,5.0,31.0,64,0.00,,---,0.00,VWS V12.07,2013-06-23 19:38:00,
2013-06-23 12:39:00,59.5,46.1,29.60,South,186,4.0,31.0,61,0.00,,---,0.00,VWS V12.07,2013-06-23 19:39:00,
2013-06-23 12:41:00,59.6,47.4,29.60,South,184,8.0,31.0,64,0.00,,---,0.00,VWS V12.07,2013-06-23 19:41:00,
2013-06-23 12:42:00,59.6,46.2,29.60,South,191,9.0,31.0,61,0.00,,---,0.00,VWS V12.07,2013-06-23 19:42:00,
2013-06-23 12:43:00,59.5,46.1,29.60,South,188,6.0,31.0,61,0.00,,---,0.00,VWS V12.07,2013-06-23 19:43:00,
2013-06-23 12:44:00,59.5,46.5,29.60,SSE,161,6.0,31.0,62,0.00,,---,0.00,VWS V12.07,2013-06-23 19:44:00,
2013-06-23 12:46:00,59.5,46.1,29.59,South,182,1.0,31.0,61,0.00,,---,0.00,VWS V12.07,2013-06-23 19:46:00,
2013-06-23 12:48:00,59.6,46.6,29.59,South,184,0.0,31.0,62,0.00,,---,0.00,VWS V12.07,2013-06-23 19:48:00,
2013-06-23 12:49:00,59.9,47.3,29.59,South,186,3.0,31.0,63,0.00,,---,0.00,VWS V12.07,2013-06-23 19:49:00,
2013-06-23 12:50:00,60.1,47.5,29.59,WSW,250,2.0,31.0,63,0.00,,---,0.00,VWS V12.07,2013-06-23 19:50:00,
2013-06-23 12:51:00,60.1,47.5,29.59,WSW,244,5.0,31.0,63,0.00,,---,0.00,VWS V12.07,2013-06-23 19:51:00,
2013-06-23 12:53:00,59.9,46.0,29.59,South,186,9.0,31.0,60,0.00,,---,0.00,VWS V12.07,2013-06-23 19:53:00,
2013-06-23 12:54:00,59.8,45.9,29.59,SSW,192,10.0,31.0,60,0.00,,---,0.00,VWS V12.07,2013-06-23 19:54:00,
2013-06-23 12:55:00,59.8,44.5,29.59,South,174,2.0,31.0,57,0.00,,---,0.00,VWS V12.07,2013-06-23 19:55:00,
2013-06-23 12:56:00,59.8,44.5,29.59,South,174,1.0,31.0,57,0.00,,---,0.00,VWS V12.07,2013-06-23 19:56:00,
2013-06-23 12:58:00,59.9,44.7,29.59,SSW,206,2.0,31.0,57,0.00,,---,0.00,VWS V12.07,2013-06-23 19:58:00,
2013-06-23 12:59:00,60.1,46.6,29.58,SSW,206,4.0,31.0,61,0.00,,---,0.00,VWS V12.07,2013-06-23 19:59:00,
2013-06-23 13:00:00,60.1,46.6,29.58,SSW,196,5.0,31.0,61,0.00,,---,0.00,VWS V12.07,2013-06-23 20:00:00,
2013-06-23 13:01:00,60.2,45.8,29.58,West,270,0.0,31.0,59,0.00,,---,0.00,VWS V12.07,2013-06-23 20:01:00,
2013-06-23 13:02:00,60.4,46.5,29.58,West,270,0.0,31.0,60,0.00,,---,0.00,VWS V12.07,2013-06-23 20:02:00,
2013-06-23 13:03:00,60.7,46.8,29.58,South,184,5.0,31.0,60,0.00,,---,0.00,VWS V12.07,2013-06-23 20:03:00,
2013-06-23 13:04:00,60.9,46.0,29.58,South,176,8.0,31.0,58,0.00,,---,0.00,VWS V12.07,2013-06-23 20:04:00,
2013-06-23 13:05:00,60.9,46.0,29.58,SSE,165,3.0,31.0,58,0.00,,---,0.00,VWS V12.07,2013-06-23 20:05:00,
2013-06-23 13:06:00,61.0,46.6,29.58,SSE,167,2.0,31.0,59,0.00,,---,0.00,VWS V12.07,2013-06-23 20:06:00,
2013-06-23 13:07:00,61.2,47.2,29.58,SSE,167,2.0,31.0,60,0.00,,---,0.00,VWS V12.07,2013-06-23 20:07:00,
2013-06-23 13:09:00,61.2,46.3,29.58,SSW,198,3.0,31.0,58,0.00,,---,0.00,VWS V12.07,2013-06-23 20:09:00,
2013-06-23 13:10:00,61.2,46.3,29.58,SSW,193,4.0,31.0,58,0.00,,---,0.00,VWS V12.07,2013-06-23 20:10:00,
2013-06-23 13:11:00,61.0,46.1,29.58,SSW,192,2.0,31.0,58,0.00,,---,0.00,VWS V12.07,2013-06-23 20:11:00,
2013-06-23 13:12:00,61.0,47.5,29.58,SSW,192,5.0,31.0,61,0.00,,---,0.00,VWS V12.07,2013-06-23 20:12:00,
2013-06-23 13:14:00,61.0,46.1,29.58,South,189,5.0,31.0,58,0.00,,---,0.00,VWS V12.07,2013-06-23 20:14:00,
2013-06-23 13:15:00,60.9,46.0,29.59,South,188,5.0,31.0,58,0.00,,---,0.00,VWS V12.07,2013-06-23 20:15:00,
2013-06-23 13:17:00,60.7,46.8,29.59,SSW,196,5.0,31.0,60,0.00,,---,0.00,VWS V12.07,2013-06-23 20:17:00,
2013-06-23 13:19:00,60.4,46.5,29.59,SSW,195,7.0,31.0,60,0.00,,---,0.00,VWS V12.07,2013-06-23 20:19:00,
2013-06-23 13:20:00,60.2,46.3,29.59,South,176,7.0,31.0,60,0.00,,---,0.00,VWS V12.07,2013-06-23 20:20:00,
2013-06-23 13:22:00,59.8,45.9,29.59,South,188,7.0,31.0,60,0.00,,---,0.00,VWS V12.07,2013-06-23 20:22:00,
2013-06-23 13:23:00,59.6,45.7,29.59,SSW,192,10.0,31.0,60,0.00,,---,0.00,VWS V12.07,2013-06-23 20:23:00,
2013-06-23 13:24:00,59.3,45.9,29.59,SSW,193,4.0,31.0,61,0.00,,---,0.00,VWS V12.07,2013-06-23 20:24:00,
2013-06-23 13:26:00,59.3,46.3,29.59,South,178,4.0,31.0,62,0.00,,---,0.00,VWS V12.07,2013-06-23 20:26:00,
2013-06-23 13:27:00,59.2,46.6,29.59,South,174,4.0,31.0,63,0.00,,---,0.00,VWS V12.07,2013-06-23 20:27:00,
2013-06-23 13:28:00,59.0,46.4,29.59,South,174,1.0,31.0,63,0.00,,---,0.00,VWS V12.07,2013-06-23 20:28:00,
2013-06-23 13:29:00,58.9,46.3,29.59,South,181,7.0,31.0,63,0.00,,---,0.00,VWS V12.07,2013-06-23 20:29:00,
2013-06-23 13:31:00,58.7,46.6,29.59,South,185,4.0,31.0,64,0.00,,---,0.00,VWS V12.07,2013-06-23 20:31:00,
2013-06-23 13:32:00,58.6,47.3,29.59,South,186,3.0,31.0,66,0.00,,---,0.00,VWS V12.07,2013-06-23 20:32:00,
2013-06-23 13:33:00,58.6,47.3,29.59,South,185,2.0,31.0,66,0.00,,---,0.00,VWS V12.07,2013-06-23 20:33:00,
2013-06-23 13:35:00,58.3,46.6,29.59,South,186,3.0,31.0,65,0.00,,---,0.00,VWS V12.07,2013-06-23 20:35:00,
2013-06-23 13:36:00,58.1,47.2,29.59,South,185,2.0,31.0,67,0.00,,---,0.00,VWS V12.07,2013-06-23 20:36:00,
2013-06-23 13:37:00,58.1,47.6,29.59,South,185,1.0,31.0,68,0.00,,---,0.00,VWS V12.07,2013-06-23 20:37:00,
2013-06-23 13:38:00,58.0,47.5,29.59,South,185,0.0,31.0,68,0.00,,---,0.00,VWS V12.07,2013-06-23 20:38:00,
2013-06-23 13:40:00,57.8,47.7,29.59,South,186,3.0,31.0,69,0.00,,---,0.00,VWS V12.07,2013-06-23 20:40:00,
2013-06-23 13:41:00,57.8,47.7,29.59,South,186,1.0,31.0,69,0.00,,---,0.00,VWS V12.07,2013-06-23 20:41:00,
2013-06-23 13:43:00,57.6,47.5,29.59,South,188,3.0,31.0,69,0.00,,---,0.00,VWS V12.07,2013-06-23 20:43:00,
2013-06-23 13:44:00,57.5,47.8,29.59,South,188,3.0,31.0,70,0.00,,---,0.00,VWS V12.07,2013-06-23 20:44:00,
2013-06-23 13:45:00,57.3,47.2,29.60,South,175,5.0,31.0,69,0.00,,---,0.00,VWS V12.07,2013-06-23 20:45:00,
2013-06-23 13:46:00,57.3,47.2,29.60,South,178,2.0,31.0,69,0.00,,---,0.00,VWS V12.07,2013-06-23 20:46:00,
2013-06-23 13:48:00,56.9,48.0,29.60,South,182,8.0,31.0,72,0.00,,---,0.00,VWS V12.07,2013-06-23 20:48:00,
2013-06-23 13:49:00,56.9,48.0,29.60,South,181,7.0,31.0,72,0.00,,---,0.00,VWS V12.07,2013-06-23 20:49:00,
2013-06-23 13:51:00,56.7,47.4,29.60,South,182,0.0,31.0,71,0.00,,---,0.00,VWS V12.07,2013-06-23 20:51:00,
2013-06-23 13:53:00,56.5,47.2,29.60,South,182,3.0,31.0,71,0.00,,---,0.00,VWS V12.07,2013-06-23 20:53:00,
2013-06-23 13:54:00,56.5,47.6,29.60,South,182,2.0,31.0,72,0.00,,---,0.00,VWS V12.07,2013-06-23 20:54:00,
2013-06-23 13:56:00,56.3,47.8,29.60,South,182,0.0,31.0,73,0.00,,---,0.00,VWS V12.07,2013-06-23 20:56:00,
2013-06-23 13:58:00,56.2,47.7,29.60,South,182,3.0,31.0,73,0.00,,---,0.00,VWS V12.07,2013-06-23 20:58:00,
2013-06-23 13:59:00,56.2,47.7,29.61,South,182,3.0,31.0,73,0.00,,---,0.00,VWS V12.07,2013-06-23 20:59:00,
2013-06-23 14:01:00,56.0,48.2,29.61,South,182,2.0,31.0,75,0.00,,---,0.00,VWS V12.07,2013-06-23 21:01:00,
2013-06-23 14:02:00,56.0,48.2,29.61,South,182,2.0,31.0,75,0.00,,---,0.00,VWS V12.07,2013-06-23 21:02:00,
2013-06-23 14:03:00,55.9,47.4,29.61,South,182,3.0,31.0,73,0.00,,---,0.00,VWS V12.07,2013-06-23 21:03:00,
2013-06-23 14:05:00,55.7,47.9,29.61,South,182,1.0,31.0,75,0.00,,---,0.00,VWS V12.07,2013-06-23 21:05:00,
2013-06-23 14:06:00,55.6,47.5,29.61,South,182,2.0,31.0,74,0.00,,---,0.00,VWS V12.07,2013-06-23 21:06:00,
2013-06-23 14:07:00,55.6,47.5,29.61,South,182,1.0,31.0,74,0.00,,---,0.00,VWS V12.07,2013-06-23 21:07:00,
2013-06-23 14:08:00,55.6,48.2,29.61,South,182,1.0,31.0,76,0.00,,---,0.00,VWS V12.07,2013-06-23 21:08:00,
2013-06-23 14:10:00,55.6,48.2,29.61,South,182,0.0,31.0,76,0.00,,---,0.00,VWS V12.07,2013-06-23 21:10:00,
2013-06-23 14:11:00,55.4,48.3,29.61,South,182,0.0,31.0,77,0.00,,---,0.00,VWS V12.07,2013-06-23 21:11:00,
2013-06-23 14:12:00,55.4,48.0,29.61,South,182,0.0,31.0,76,0.00,,---,0.00,VWS V12.07,2013-06-23 21:12:00,
2013-06-23 14:13:00,55.4,48.0,29.61,South,182,0.0,31.0,76,0.00,,---,0.00,VWS V12.07,2013-06-23 21:13:00,
2013-06-23 14:15:00,55.4,48.0,29.60,South,182,0.0,31.0,76,0.00,,---,0.00,VWS V12.07,2013-06-23 21:15:00,
2013-06-23 14:16:00,55.4,48.0,29.60,South,182,0.0,31.0,76,0.00,,---,0.00,VWS V12.07,2013-06-23 21:16:00,
2013-06-23 14:17:00,55.4,48.0,29.60,South,182,0.0,31.0,76,0.00,,---,0.00,VWS V12.07,2013-06-23 21:17:00,
2013-06-23 14:18:00,55.4,48.0,29.60,South,182,0.0,31.0,76,0.00,,---,0.00,VWS V12.07,2013-06-23 21:18:00,
2013-06-23 14:19:00,55.6,48.2,29.60,South,182,0.0,31.0,76,0.00,,---,0.00,VWS V12.07,2013-06-23 21:19:00,
2013-06-23 14:21:00,55.6,48.9,29.60,South,182,0.0,31.0,78,0.00,,---,0.00,VWS V12.07,2013-06-23 21:21:00,
2013-06-23 14:22:00,55.6,48.2,29.60,South,182,1.0,31.0,76,0.00,,---,0.00,VWS V12.07,2013-06-23 21:22:00,
2013-06-23 14:23:00,55.7,48.6,29.60,South,182,0.0,31.0,77,0.00,,---,0.00,VWS V12.07,2013-06-23 21:23:00,
2013-06-23 14:24:00,55.7,48.6,29.60,South,182,0.0,31.0,77,0.00,,---,0.00,VWS V12.07,2013-06-23 21:24:00,
2013-06-23 14:26:00,55.9,48.8,29.60,South,182,0.0,31.0,77,0.00,,---,0.00,VWS V12.07,2013-06-23 21:26:00,
2013-06-23 14:27:00,55.9,49.2,29.60,South,182,0.0,31.0,78,0.00,,---,0.00,VWS V12.07,2013-06-23 21:27:00,
2013-06-23 14:28:00,56.0,49.2,29.60,South,182,0.0,31.0,78,0.00,,---,0.00,VWS V12.07,2013-06-23 21:28:00,
2013-06-23 14:29:00,56.0,49.2,29.59,South,182,0.0,31.0,78,0.00,,---,0.00,VWS V12.07,2013-06-23 21:29:00,
2013-06-23 14:31:00,56.5,49.7,29.59,South,182,0.0,31.0,78,0.00,,---,0.00,VWS V12.07,2013-06-23 21:31:00,
2013-06-23 14:32:00,56.5,49.7,29.59,South,182,0.0,31.0,78,0.00,,---,0.00,VWS V12.07,2013-06-23 21:32:00,
2013-06-23 14:34:00,56.6,49.8,29.59,South,182,0.0,31.0,78,0.00,,---,0.00,VWS V12.07,2013-06-23 21:34:00,
2013-06-23 14:35:00,56.6,49.8,29.59,South,182,0.0,31.0,78,0.00,,---,0.00,VWS V12.07,2013-06-23 21:35:00,
2013-06-23 14:36:00,56.7,49.9,29.59,South,182,0.0,31.0,78,0.00,,---,0.00,VWS V12.07,2013-06-23 21:36:00,
2013-06-23 14:38:00,56.9,50.1,29.59,South,182,0.0,31.0,78,0.00,,---,0.00,VWS V12.07,2013-06-23 21:38:00,
2013-06-23 14:39:00,56.9,49.8,29.59,South,182,0.0,31.0,77,0.00,,---,0.00,VWS V12.07,2013-06-23 21:39:00,
2013-06-23 14:40:00,57.0,49.9,29.59,South,182,0.0,31.0,77,0.00,,---,0.00,VWS V12.07,2013-06-23 21:40:00,
2013-06-23 14:41:00,57.3,50.2,29.59,South,182,0.0,31.0,77,0.00,,---,0.00,VWS V12.07,2013-06-23 21:41:00,
2013-06-23 14:43:00,58.0,51.2,29.59,South,182,0.0,31.0,78,0.00,,---,0.00,VWS V12.07,2013-06-23 21:43:00,
2013-06-23 14:44:00,58.1,51.6,29.58,South,182,0.0,31.0,79,0.00,,---,0.00,VWS V12.07,2013-06-23 21:44:00,
2013-06-23 14:45:00,58.4,51.6,29.58,South,182,0.0,31.0,78,0.00,,---,0.00,VWS V12.07,2013-06-23 21:45:00,
2013-06-23 14:47:00,58.4,51.2,29.58,South,182,0.0,31.0,77,0.00,,---,0.00,VWS V12.07,2013-06-23 21:47:00,
2013-06-23 14:49:00,58.6,51.1,29.58,South,182,0.0,31.0,76,0.00,,---,0.00,VWS V12.07,2013-06-23 21:49:00,
2013-06-23 14:50:00,58.7,51.2,29.58,South,182,0.0,31.0,76,0.00,,---,0.00,VWS V12.07,2013-06-23 21:50:00,
2013-06-23 14:51:00,58.9,51.4,29.58,South,182,0.0,31.0,76,0.00,,---,0.00,VWS V12.07,2013-06-23 21:51:00,
2013-06-23 14:52:00,59.2,52.0,29.58,South,182,0.0,31.0,77,0.00,,---,0.00,VWS V12.07,2013-06-23 21:52:00,
2013-06-23 14:54:00,59.5,51.9,29.58,South,182,0.0,31.0,76,0.00,,---,0.00,VWS V12.07,2013-06-23 21:54:00,
2013-06-23 14:55:00,59.8,52.2,29.58,South,184,1.0,31.0,76,0.00,,---,0.00,VWS V12.07,2013-06-23 21:55:00,
2013-06-23 14:56:00,59.8,51.5,29.58,NW,311,0.0,31.0,74,0.00,,---,0.00,VWS V12.07,2013-06-23 21:56:00,
2013-06-23 14:57:00,59.8,51.1,29.58,NW,309,0.0,31.0,73,0.00,,---,0.00,VWS V12.07,2013-06-23 21:57:00,
2013-06-23 14:58:00,59.9,51.2,29.58,NW,313,0.0,31.0,73,0.00,,---,0.00,VWS V12.07,2013-06-23 21:58:00,
2013-06-23 14:59:00,59.9,50.9,29.57,NW,312,0.0,31.0,72,0.00,,---,0.00,VWS V12.07,2013-06-23 21:59:00,
2013-06-23 15:00:00,60.1,51.1,29.57,NW,312,0.0,31.0,72,0.00,,---,0.00,VWS V12.07,2013-06-23 22:00:00,
2013-06-23 15:02:00,60.1,50.7,29.57,NW,312,0.0,31.0,71,0.00,,---,0.00,VWS V12.07,2013-06-23 22:02:00,
2013-06-23 15:03:00,60.1,50.3,29.57,NW,312,0.0,31.0,70,0.00,,---,0.00,VWS V12.07,2013-06-23 22:03:00,
2013-06-23 15:04:00,60.1,49.5,29.57,NW,312,0.0,31.0,68,0.00,,---,0.00,VWS V12.07,2013-06-23 22:04:00,
2013-06-23 15:06:00,60.1,50.3,29.57,NW,312,0.0,31.0,70,0.00,,---,0.00,VWS V12.07,2013-06-23 22:06:00,
2013-06-23 15:07:00,60.2,50.8,29.57,NW,312,0.0,31.0,71,0.00,,---,0.00,VWS V12.07,2013-06-23 22:07:00,
2013-06-23 15:08:00,60.2,50.4,29.57,NW,316,0.0,31.0,70,0.00,,---,0.00,VWS V12.07,2013-06-23 22:08:00,
2013-06-23 15:10:00,60.1,49.9,29.57,North,10,0.0,31.0,69,0.00,,---,0.00,VWS V12.07,2013-06-23 22:10:00,
2013-06-23 15:11:00,60.2,50.4,29.57,North,10,0.0,31.0,70,0.00,,---,0.00,VWS V12.07,2013-06-23 22:11:00,
2013-06-23 15:12:00,60.1,50.3,29.57,North,10,0.0,31.0,70,0.00,,---,0.00,VWS V12.07,2013-06-23 22:12:00,
2013-06-23 15:13:00,60.1,50.7,29.57,North,10,0.0,31.0,71,0.00,,---,0.00,VWS V12.07,2013-06-23 22:13:00,
2013-06-23 15:14:00,59.9,50.9,29.57,North,10,0.0,31.0,72,0.00,,---,0.00,VWS V12.07,2013-06-23 22:14:00,
2013-06-23 15:15:00,59.8,51.1,29.57,SSE,161,0.0,31.0,73,0.00,,---,0.00,VWS V12.07,2013-06-23 22:15:00,
2013-06-23 15:16:00,59.8,50.4,29.57,NW,319,5.0,31.0,71,0.00,,---,0.00,VWS V12.07,2013-06-23 22:16:00,
2013-06-23 15:17:00,59.3,49.9,29.57,NW,311,2.0,31.0,71,0.00,,---,0.00,VWS V12.07,2013-06-23 22:17:00,
2013-06-23 15:18:00,59.3,49.9,29.57,NW,311,0.0,31.0,71,0.00,,---,0.00,VWS V12.07,2013-06-23 22:18:00,
2013-06-23 15:20:00,58.7,48.6,29.57,SSW,198,5.0,31.0,69,0.00,,---,0.00,VWS V12.07,2013-06-23 22:20:00,
2013-06-23 15:21:00,58.3,49.3,29.57,SSW,198,2.0,31.0,72,0.00,,---,0.00,VWS V12.07,2013-06-23 22:21:00,
2013-06-23 15:22:00,57.5,48.6,29.57,SSW,202,4.0,31.0,72,0.00,,---,0.00,VWS V12.07,2013-06-23 22:22:00,
2013-06-23 15:23:00,56.9,48.0,29.57,South,181,10.0,31.0,72,0.00,,---,0.00,VWS V12.07,2013-06-23 22:23:00,
2013-06-23 15:25:00,56.3,47.8,29.57,South,186,3.0,31.0,73,0.00,,---,0.00,VWS V12.07,2013-06-23 22:25:00,
2013-06-23 15:26:00,56.0,47.5,29.57,South,185,7.0,31.0,73,0.00,,---,0.00,VWS V12.07,2013-06-23 22:26:00,
2013-06-23 15:27:00,55.7,47.5,29.57,South,185,3.0,31.0,74,0.00,,---,0.00,VWS V12.07,2013-06-23 22:27:00,
2013-06-23 15:29:00,55.3,47.5,29.57,South,185,4.0,31.0,75,0.00,,---,0.00,VWS V12.07,2013-06-23 22:29:00,
2013-06-23 15:30:00,54.8,47.0,29.61,South,188,7.0,31.0,75,0.00,,---,0.00,VWS V12.07,2013-06-23 22:30:00,
2013-06-23 15:31:00,54.7,46.9,29.61,South,186,7.0,31.0,75,0.00,,---,0.00,VWS V12.07,2013-06-23 22:31:00,
2013-06-23 15:32:00,54.7,47.3,29.61,South,184,5.0,31.0,76,0.00,,---,0.00,VWS V12.07,2013-06-23 22:32:00,
2013-06-23 15:33:00,54.5,47.1,29.61,South,186,2.0,31.0,76,0.00,,---,0.00,VWS V12.07,2013-06-23 22:33:00,
2013-06-23 15:34:00,54.4,47.7,29.61,SSW,199,2.0,31.0,78,0.00,,---,0.00,VWS V12.07,2013-06-23 22:34:00,
2013-06-23 15:36:00,54.2,47.2,29.61,SSW,196,6.0,31.0,77,0.00,,---,0.00,VWS V12.07,2013-06-23 22:36:00,
2013-06-23 15:37:00,54.1,47.4,29.61,SSW,200,5.0,31.0,78,0.00,,---,0.00,VWS V12.07,2013-06-23 22:37:00,
2013-06-23 15:39:00,54.1,47.4,29.61,SSW,193,3.0,31.0,78,0.00,,---,0.00,VWS V12.07,2013-06-23 22:39:00,
2013-06-23 15:41:00,53.9,46.5,29.61,South,186,2.0,31.0,76,0.00,,---,0.00,VWS V12.07,2013-06-23 22:41:00,
2013-06-23 15:42:00,53.9,46.5,29.61,South,186,2.0,31.0,76,0.00,,---,0.00,VWS V12.07,2013-06-23 22:42:00,
2013-06-23 15:44:00,53.9,47.5,29.60,South,186,2.0,31.0,79,0.00,,---,0.00,VWS V12.07,2013-06-23 22:44:00,
2013-06-23 15:45:00,53.9,47.5,29.60,South,186,3.0,31.0,79,0.00,,---,0.00,VWS V12.07,2013-06-23 22:45:00,
2013-06-23 15:46:00,54.1,48.1,29.60,South,188,3.0,31.0,80,0.00,,---,0.00,VWS V12.07,2013-06-23 22:46:00,
2013-06-23 15:47:00,54.1,47.1,29.60,South,188,1.0,31.0,77,0.00,,---,0.00,VWS V12.07,2013-06-23 22:47:00,
2013-06-23 15:49:00,54.2,47.5,29.60,South,188,1.0,31.0,78,0.00,,---,0.00,VWS V12.07,2013-06-23 22:49:00,
2013-06-23 15:50:00,54.2,47.5,29.60,South,188,0.0,31.0,78,0.00,,---,0.00,VWS V12.07,2013-06-23 22:50:00,
2013-06-23 15:52:00,54.4,48.0,29.60,South,186,2.0,31.0,79,0.00,,---,0.00,VWS V12.07,2013-06-23 22:52:00,
2013-06-23 15:54:00,54.7,48.7,29.60,South,186,2.0,31.0,80,0.00,,---,0.00,VWS V12.07,2013-06-23 22:54:00,
2013-06-23 15:56:00,54.8,48.8,29.60,South,186,0.0,31.0,80,0.00,,---,0.00,VWS V12.07,2013-06-23 22:56:00,
2013-06-23 15:57:00,54.8,48.8,29.60,South,186,2.0,31.0,80,0.00,,---,0.00,VWS V12.07,2013-06-23 22:57:00,
2013-06-23 15:58:00,54.7,48.7,29.60,South,182,2.0,31.0,80,0.00,,---,0.00,VWS V12.07,2013-06-23 22:58:00,
2013-06-23 16:00:00,54.7,48.0,29.59,South,184,2.0,31.0,78,0.00,,---,0.00,VWS V12.07,2013-06-23 23:00:00,
2013-06-23 16:01:00,55.0,47.6,29.59,South,182,2.0,31.0,76,0.00,,---,0.00,VWS V12.07,2013-06-23 23:01:00,
2013-06-23 16:02:00,55.0,48.3,29.59,South,182,2.0,31.0,78,0.00,,---,0.00,VWS V12.07,2013-06-23 23:02:00,
2013-06-23 16:03:00,55.0,48.3,29.59,South,182,1.0,31.0,78,0.00,,---,0.00,VWS V12.07,2013-06-23 23:03:00,
2013-06-23 16:05:00,55.1,48.4,29.59,South,184,3.0,31.0,78,0.00,,---,0.00,VWS V12.07,2013-06-23 23:05:00,
2013-06-23 16:07:00,55.3,48.6,29.59,South,184,2.0,31.0,78,0.00,,---,0.00,VWS V12.07,2013-06-23 23:07:00,
2013-06-23 16:08:00,55.3,48.6,29.59,South,182,5.0,31.0,78,0.00,,---,0.00,VWS V12.07,2013-06-23 23:08:00,
2013-06-23 16:11:00,55.4,48.7,29.59,South,184,3.0,31.0,78,0.00,,---,0.00,VWS V12.07,2013-06-23 23:11:00,
2013-06-23 16:12:00,55.6,48.9,29.59,South,184,2.0,31.0,78,0.00,,---,0.00,VWS V12.07,2013-06-23 23:12:00,
2013-06-23 16:13:00,55.6,47.8,29.59,South,184,2.0,31.0,75,0.00,,---,0.00,VWS V12.07,2013-06-23 23:13:00,
2013-06-23 16:16:00,55.7,47.5,29.59,SSE,147,2.0,31.0,74,0.00,,---,0.00,VWS V12.07,2013-06-23 23:16:00,
2013-06-23 16:17:00,56.0,49.6,29.59,South,179,5.0,31.0,79,0.00,,---,0.00,VWS V12.07,2013-06-23 23:17:00,
2013-06-23 16:18:00,56.0,48.5,29.59,South,189,4.0,31.0,76,0.00,,---,0.00,VWS V12.07,2013-06-23 23:18:00,
2013-06-23 16:21:00,56.2,48.8,29.59,South,179,5.0,31.0,76,0.00,,---,0.00,VWS V12.07,2013-06-23 23:21:00,
2013-06-23 16:23:00,56.2,48.0,29.59,South,178,5.0,31.0,74,0.00,,---,0.00,VWS V12.07,2013-06-23 23:23:00,
2013-06-23 16:24:00,56.2,48.0,29.59,South,178,5.0,31.0,74,0.00,,---,0.00,VWS V12.07,2013-06-23 23:24:00,
2013-06-23 16:26:00,56.2,47.7,29.59,South,175,3.0,31.0,73,0.00,,---,0.00,VWS V12.07,2013-06-23 23:26:00,
2013-06-23 16:28:00,56.0,48.2,29.59,South,175,2.0,31.0,75,0.00,,---,0.00,VWS V12.07,2013-06-23 23:28:00,
2013-06-23 16:29:00,56.2,47.3,29.59,South,175,3.0,31.0,72,0.00,,---,0.00,VWS V12.07,2013-06-23 23:29:00,
2013-06-23 16:32:00,56.0,46.4,29.59,South,191,5.0,31.0,70,0.00,,---,0.00,VWS V12.07,2013-06-23 23:32:00,
2013-06-23 16:33:00,56.0,47.5,29.59,South,189,3.0,31.0,73,0.00,,---,0.00,VWS V12.07,2013-06-23 23:33:00,
2013-06-23 16:34:00,56.0,47.1,29.59,South,189,1.0,31.0,72,0.00,,---,0.00,VWS V12.07,2013-06-23 23:34:00,
2013-06-23 16:38:00,56.0,47.1,29.59,South,179,5.0,31.0,72,0.00,,---,0.00,VWS V12.07,2013-06-23 23:38:00,
2013-06-23 16:39:00,56.0,47.8,29.59,South,179,2.0,31.0,74,0.00,,---,0.00,VWS V12.07,2013-06-23 23:39:00,
2013-06-23 16:40:00,56.0,47.8,29.59,South,179,3.0,31.0,74,0.00,,---,0.00,VWS V12.07,2013-06-23 23:40:00,
2013-06-23 16:43:00,56.0,46.4,29.59,South,189,2.0,31.0,70,0.00,,---,0.00,VWS V12.07,2013-06-23 23:43:00,
2013-06-23 16:44:00,56.2,48.0,29.58,South,188,6.0,31.0,74,0.00,,---,0.00,VWS V12.07,2013-06-23 23:44:00,
2013-06-23 16:45:00,56.0,47.5,29.58,South,188,3.0,31.0,73,0.00,,---,0.00,VWS V12.07,2013-06-23 23:45:00,
2013-06-23 16:48:00,56.2,47.7,29.58,South,188,5.0,31.0,73,0.00,,---,0.00,VWS V12.07,2013-06-23 23:48:00,
2013-06-23 16:49:00,56.2,46.9,29.58,South,188,4.0,31.0,71,0.00,,---,0.00,VWS V12.07,2013-06-23 23:49:00,
2013-06-23 16:50:00,56.2,46.9,29.58,South,188,3.0,31.0,71,0.00,,---,0.00,VWS V12.07,2013-06-23 23:50:00,
2013-06-23 16:53:00,56.3,47.4,29.58,South,188,2.0,31.0,72,0.00,,---,0.00,VWS V12.07,2013-06-23 23:53:00,
2013-06-23 16:54:00,56.5,48.3,29.58,South,188,3.0,31.0,74,0.00,,---,0.00,VWS V12.07,2013-06-23 23:54:00,
2013-06-23 16:55:00,56.3,48.1,29.58,South,188,2.0,31.0,74,0.00,,---,0.00,VWS V12.07,2013-06-23 23:55:00,
2013-06-23 16:56:00,56.5,47.6,29.58,South,188,3.0,31.0,72,0.00,,---,0.00,VWS V12.07,2013-06-23 23:56:00,
2013-06-23 16:58:00,56.5,48.0,29.58,South,188,2.0,31.0,73,0.00,,---,0.00,VWS V12.07,2013-06-23 23:58:00,
2013-06-23 16:59:00,56.6,48.4,29.58,South,188,5.0,31.0,74,0.00,,---,0.00,VWS V12.07,2013-06-23 23:59:00,
2013-06-23 17:00:00,56.5,48.7,29.58,South,188,4.0,31.0,75,0.00,,---,0.00,VWS V12.07,2013-06-24 00:00:00,
2013-06-23 17:01:00,56.5,47.2,29.58,South,188,3.0,31.0,71,0.00,,---,0.00,VWS V12.07,2013-06-24 00:01:00,
2013-06-23 17:04:00,56.6,47.3,29.58,South,188,2.0,31.0,71,0.00,,---,0.00,VWS V12.07,2013-06-24 00:04:00,
2013-06-23 17:05:00,56.5,47.2,29.58,South,188,4.0,31.0,71,0.00,,---,0.00,VWS V12.07,2013-06-24 00:05:00,
2013-06-23 17:06:00,56.6,47.7,29.58,South,188,2.0,31.0,72,0.00,,---,0.00,VWS V12.07,2013-06-24 00:06:00,
2013-06-23 17:09:00,56.6,47.7,29.58,South,188,0.0,31.0,72,0.00,,---,0.00,VWS V12.07,2013-06-24 00:09:00,
2013-06-23 17:11:00,56.6,47.7,29.58,South,188,2.0,31.0,72,0.00,,---,0.00,VWS V12.07,2013-06-24 00:11:00,
2013-06-23 17:12:00,56.6,47.7,29.58,South,188,1.0,31.0,72,0.00,,---,0.00,VWS V12.07,2013-06-24 00:12:00,
2013-06-23 17:14:00,56.6,48.1,29.58,South,188,5.0,31.0,73,0.00,,---,0.00,VWS V12.07,2013-06-24 00:14:00,
2013-06-23 17:16:00,56.6,46.9,29.58,South,185,4.0,31.0,70,0.00,,---,0.00,VWS V12.07,2013-06-24 00:16:00,
2013-06-23 17:17:00,56.5,46.8,29.58,South,184,5.0,31.0,70,0.00,,---,0.00,VWS V12.07,2013-06-24 00:17:00,
2013-06-23 17:18:00,56.6,47.7,29.58,South,184,2.0,31.0,72,0.00,,---,0.00,VWS V12.07,2013-06-24 00:18:00,
2013-06-23 17:19:00,56.6,47.7,29.58,South,184,5.0,31.0,72,0.00,,---,0.00,VWS V12.07,2013-06-24 00:19:00,
2013-06-23 17:21:00,56.6,48.4,29.58,South,182,3.0,31.0,74,0.00,,---,0.00,VWS V12.07,2013-06-24 00:21:00,
2013-06-23 17:22:00,56.6,48.1,29.58,South,182,5.0,31.0,73,0.00,,---,0.00,VWS V12.07,2013-06-24 00:22:00,
2013-06-23 17:24:00,56.6,47.7,29.58,South,182,5.0,31.0,72,0.00,,---,0.00,VWS V12.07,2013-06-24 00:24:00,
2013-06-23 17:25:00,56.6,48.4,29.58,South,182,0.0,31.0,74,0.00,,---,0.00,VWS V12.07,2013-06-24 00:25:00,
2013-06-23 17:26:00,56.6,48.1,29.58,South,182,4.0,31.0,73,0.00,,---,0.00,VWS V12.07,2013-06-24 00:26:00,
2013-06-23 17:27:00,56.6,48.1,29.58,South,184,2.0,31.0,73,0.00,,---,0.00,VWS V12.07,2013-06-24 00:27:00,
2013-06-23 17:29:00,56.7,48.2,29.58,South,184,5.0,31.0,73,0.00,,---,0.00,VWS V12.07,2013-06-24 00:29:00,
2013-06-23 17:30:00,56.7,48.2,29.57,South,184,2.0,31.0,73,0.00,,---,0.00,VWS V12.07,2013-06-24 00:30:00,
2013-06-23 17:32:00,56.9,48.7,29.57,South,184,5.0,31.0,74,0.00,,---,0.00,VWS V12.07,2013-06-24 00:32:00,
2013-06-23 17:33:00,56.9,48.3,29.57,South,184,2.0,31.0,73,0.00,,---,0.00,VWS V12.07,2013-06-24 00:33:00,
2013-06-23 17:35:00,56.9,48.3,29.57,South,185,5.0,31.0,73,0.00,,---,0.00,VWS V12.07,2013-06-24 00:35:00,
2013-06-23 17:37:00,57.0,49.2,29.57,South,181,2.0,31.0,75,0.00,,---,0.00,VWS V12.07,2013-06-24 00:37:00,
2013-06-23 17:38:00,57.0,48.8,29.57,South,182,0.0,31.0,74,0.00,,---,0.00,VWS V12.07,2013-06-24 00:38:00,
2013-06-23 17:40:00,57.2,49.0,29.57,South,184,5.0,31.0,74,0.00,,---,0.00,VWS V12.07,2013-06-24 00:40:00,
2013-06-23 17:42:00,57.2,49.0,29.57,South,184,1.0,31.0,74,0.00,,---,0.00,VWS V12.07,2013-06-24 00:42:00,
2013-06-23 17:43:00,57.3,49.5,29.57,South,182,0.0,31.0,75,0.00,,---,0.00,VWS V12.07,2013-06-24 00:43:00,
2013-06-23 17:45:00,57.3,49.1,29.57,South,182,5.0,31.0,74,0.00,,---,0.00,VWS V12.07,2013-06-24 00:45:00,
2013-06-23 17:47:00,57.3,49.1,29.57,South,182,0.0,31.0,74,0.00,,---,0.00,VWS V12.07,2013-06-24 00:47:00,
2013-06-23 17:48:00,57.3,49.5,29.57,South,182,0.0,31.0,75,0.00,,---,0.00,VWS V12.07,2013-06-24 00:48:00,
2013-06-23 17:50:00,57.5,49.3,29.57,South,182,0.0,31.0,74,0.00,,---,0.00,VWS V12.07,2013-06-24 00:50:00,
2013-06-23 17:51:00,57.5,49.7,29.57,South,182,2.0,31.0,75,0.00,,---,0.00,VWS V12.07,2013-06-24 00:51:00,
2013-06-23 17:52:00,57.3,48.7,29.57,South,184,3.0,31.0,73,0.00,,---,0.00,VWS V12.07,2013-06-24 00:52:00,
2013-06-23 17:53:00,57.3,48.7,29.57,South,184,0.0,31.0,73,0.00,,---,0.00,VWS V12.07,2013-06-24 00:53:00,
2013-06-23 17:55:00,57.5,48.9,29.57,South,182,3.0,31.0,73,0.00,,---,0.00,VWS V12.07,2013-06-24 00:55:00,
2013-06-23 17:56:00,57.5,48.9,29.57,South,182,0.0,31.0,73,0.00,,---,0.00,VWS V12.07,2013-06-24 00:56:00,
2013-06-23 17:57:00,57.5,49.3,29.57,South,182,3.0,31.0,74,0.00,,---,0.00,VWS V12.07,2013-06-24 00:57:00,
2013-06-23 17:58:00,57.5,49.3,29.57,South,184,2.0,31.0,74,0.00,,---,0.00,VWS V12.07,2013-06-24 00:58:00,
2013-06-23 18:00:00,57.5,48.9,29.56,South,184,0.0,31.0,73,0.00,,---,0.00,VWS V12.07,2013-06-24 01:00:00,
2013-06-23 18:01:00,57.5,48.9,29.56,South,184,0.0,31.0,73,0.00,,---,0.00,VWS V12.07,2013-06-24 01:01:00,
2013-06-23 18:03:00,57.5,49.3,29.56,South,182,0.0,31.0,74,0.00,,---,0.00,VWS V12.07,2013-06-24 01:03:00,
2013-06-23 18:06:00,57.5,49.7,29.56,South,184,3.0,31.0,75,0.00,,---,0.00,VWS V12.07,2013-06-24 01:06:00,
2013-06-23 18:07:00,57.5,48.6,29.56,South,184,3.0,31.0,72,0.00,,---,0.00,VWS V12.07,2013-06-24 01:07:00,
2013-06-23 18:08:00,57.5,49.3,29.56,South,184,2.0,31.0,74,0.00,,---,0.00,VWS V12.07,2013-06-24 01:08:00,
2013-06-23 18:09:00,57.5,49.3,29.56,South,184,1.0,31.0,74,0.00,,---,0.00,VWS V12.07,2013-06-24 01:09:00,
2013-06-23 18:11:00,57.5,48.9,29.56,South,186,5.0,31.0,73,0.00,,---,0.00,VWS V12.07,2013-06-24 01:11:00,
2013-06-23 18:13:00,57.5,48.9,29.56,South,186,6.0,31.0,73,0.00,,---,0.00,VWS V12.07,2013-06-24 01:13:00,
2013-06-23 18:14:00,57.5,48.9,29.56,South,185,4.0,31.0,73,0.00,,---,0.00,VWS V12.07,2013-06-24 01:14:00,
2013-06-23 18:17:00,57.6,49.8,29.55,South,185,3.0,31.0,75,0.00,,---,0.00,VWS V12.07,2013-06-24 01:17:00,
2013-06-23 18:18:00,57.6,48.7,29.55,South,185,2.0,31.0,72,0.00,,---,0.00,VWS V12.07,2013-06-24 01:18:00,
2013-06-23 18:19:00,57.6,48.7,29.55,South,185,3.0,31.0,72,0.00,,---,0.00,VWS V12.07,2013-06-24 01:19:00,
2013-06-23 18:22:00,57.8,49.6,29.55,South,185,2.0,31.0,74,0.00,,---,0.00,VWS V12.07,2013-06-24 01:22:00,
2013-06-23 18:23:00,57.8,48.8,29.55,South,184,2.0,31.0,72,0.00,,---,0.00,VWS V12.07,2013-06-24 01:23:00,
2013-06-23 18:24:00,57.8,48.5,29.55,South,184,3.0,31.0,71,0.00,,---,0.00,VWS V12.07,2013-06-24 01:24:00,
2013-06-23 18:27:00,57.8,48.5,29.55,South,184,2.0,31.0,71,0.00,,---,0.00,VWS V12.07,2013-06-24 01:27:00,
2013-06-23 18:29:00,58.0,49.4,29.55,South,184,1.0,31.0,73,0.00,,---,0.00,VWS V12.07,2013-06-24 01:29:00,
2013-06-23 18:33:00,58.0,49.0,29.55,South,184,0.0,31.0,72,0.00,,---,0.00,VWS V12.07,2013-06-24 01:33:00,
2013-06-23 18:34:00,58.0,48.7,29.55,South,184,2.0,31.0,71,0.00,,---,0.00,VWS V12.07,2013-06-24 01:34:00,
2013-06-23 18:35:00,58.0,48.7,29.55,South,184,0.0,31.0,71,0.00,,---,0.00,VWS V12.07,2013-06-24 01:35:00,
2013-06-23 18:38:00,58.1,49.1,29.55,South,184,0.0,31.0,72,0.00,,---,0.00,VWS V12.07,2013-06-24 01:38:00,
2013-06-23 18:39:00,58.1,49.1,29.55,South,184,0.0,31.0,72,0.00,,---,0.00,VWS V12.07,2013-06-24 01:39:00,
2013-06-23 18:40:00,58.1,49.1,29.55,South,184,2.0,31.0,72,0.00,,---,0.00,VWS V12.07,2013-06-24 01:40:00,
2013-06-23 18:43:00,58.1,49.1,29.55,South,184,2.0,31.0,72,0.00,,---,0.00,VWS V12.07,2013-06-24 01:43:00,
2013-06-23 18:44:00,58.1,48.8,29.55,South,185,2.0,31.0,71,0.00,,---,0.00,VWS V12.07,2013-06-24 01:44:00,
2013-06-23 18:45:00,58.1,48.8,29.55,South,185,3.0,31.0,71,0.00,,---,0.00,VWS V12.07,2013-06-24 01:45:00,
2013-06-23 18:49:00,58.1,49.1,29.55,South,184,2.0,31.0,72,0.00,,---,0.00,VWS V12.07,2013-06-24 01:49:00,
2013-06-23 18:50:00,58.1,48.8,29.55,South,184,3.0,31.0,71,0.00,,---,0.00,VWS V12.07,2013-06-24 01:50:00,
2013-06-23 18:51:00,58.1,48.8,29.55,South,184,4.0,31.0,71,0.00,,---,0.00,VWS V12.07,2013-06-24 01:51:00,
2013-06-23 18:55:00,58.3,49.3,29.55,South,184,0.0,31.0,72,0.00,,---,0.00,VWS V12.07,2013-06-24 01:55:00,
2013-06-23 18:56:00,58.3,49.3,29.55,South,184,0.0,31.0,72,0.00,,---,0.00,VWS V12.07,2013-06-24 01:56:00,
2013-06-23 19:00:00,58.4,49.0,29.55,South,184,0.0,31.0,71,0.00,,---,0.00,VWS V12.07,2013-06-24 02:00:00,
2013-06-23 19:01:00,58.4,49.0,29.55,South,184,0.0,31.0,71,0.00,,---,0.00,VWS V12.07,2013-06-24 02:01:00,
2013-06-23 19:05:00,58.6,48.9,29.55,South,184,0.0,31.0,70,0.00,,---,0.00,VWS V12.07,2013-06-24 02:05:00,
2013-06-23 19:06:00,58.6,48.9,29.55,South,184,0.0,31.0,70,0.00,,---,0.00,VWS V12.07,2013-06-24 02:06:00,
2013-06-23 19:07:00,58.7,49.0,29.55,South,184,1.0,31.0,70,0.00,,---,0.00,VWS V12.07,2013-06-24 02:07:00,
2013-06-23 19:11:00,59.0,48.9,29.55,South,184,2.0,31.0,69,0.00,,---,0.00,VWS V12.07,2013-06-24 02:11:00,
2013-06-23 19:12:00,59.2,49.0,29.55,South,184,2.0,31.0,69,0.00,,---,0.00,VWS V12.07,2013-06-24 02:12:00,
2013-06-23 19:16:00,59.3,48.8,29.54,South,184,0.0,31.0,68,0.00,,---,0.00,VWS V12.07,2013-06-24 02:16:00,
2013-06-23 19:17:00,59.3,49.1,29.54,South,184,0.0,31.0,69,0.00,,---,0.00,VWS V12.07,2013-06-24 02:17:00,
2013-06-23 19:18:00,59.5,48.9,29.54,South,184,0.0,31.0,68,0.00,,---,0.00,VWS V12.07,2013-06-24 02:18:00,
2013-06-23 19:21:00,59.5,48.9,29.54,South,184,0.0,31.0,68,0.00,,---,0.00,VWS V12.07,2013-06-24 02:21:00,
2013-06-23 19:22:00,59.5,48.9,29.54,South,184,0.0,31.0,68,0.00,,---,0.00,VWS V12.07,2013-06-24 02:22:00,
2013-06-23 19:24:00,59.5,48.9,29.54,South,184,0.0,31.0,68,0.00,,---,0.00,VWS V12.07,2013-06-24 02:24:00,
2013-06-23 19:27:00,59.5,47.7,29.54,South,184,0.0,31.0,65,0.00,,---,0.00,VWS V12.07,2013-06-24 02:27:00,
2013-06-23 19:28:00,59.3,47.5,29.54,South,184,2.0,31.0,65,0.00,,---,0.00,VWS V12.07,2013-06-24 02:28:00,
2013-06-23 19:29:00,59.3,48.0,29.54,South,184,0.0,31.0,66,0.00,,---,0.00,VWS V12.07,2013-06-24 02:29:00,
2013-06-23 19:32:00,59.5,48.2,29.54,South,184,0.0,31.0,66,0.00,,---,0.00,VWS V12.07,2013-06-24 02:32:00,
2013-06-23 19:33:00,59.5,48.2,29.54,South,184,0.0,31.0,66,0.00,,---,0.00,VWS V12.07,2013-06-24 02:33:00,
2013-06-23 19:35:00,59.5,49.3,29.54,South,186,0.0,31.0,69,0.00,,---,0.00,VWS V12.07,2013-06-24 02:35:00,
2013-06-23 19:37:00,59.3,49.5,29.54,South,186,0.0,31.0,70,0.00,,---,0.00,VWS V12.07,2013-06-24 02:37:00,
2013-06-23 19:38:00,59.3,49.5,29.54,South,186,0.0,31.0,70,0.00,,---,0.00,VWS V12.07,2013-06-24 02:38:00,
2013-06-23 19:40:00,59.3,49.5,29.54,South,186,0.0,31.0,70,0.00,,---,0.00,VWS V12.07,2013-06-24 02:40:00,
2013-06-23 19:43:00,59.2,49.4,29.54,South,186,0.0,31.0,70,0.00,,---,0.00,VWS V12.07,2013-06-24 02:43:00,
2013-06-23 19:44:00,59.2,49.4,29.54,South,186,0.0,31.0,70,0.00,,---,0.00,VWS V12.07,2013-06-24 02:44:00,
2013-06-23 19:45:00,59.0,49.2,29.54,South,186,0.0,31.0,70,0.00,,---,0.00,VWS V12.07,2013-06-24 02:45:00,
2013-06-23 19:48:00,58.9,49.2,29.54,South,186,0.0,31.0,70,0.00,,---,0.00,VWS V12.07,2013-06-24 02:48:00,
2013-06-23 19:49:00,58.9,49.2,29.54,South,186,0.0,31.0,70,0.00,,---,0.00,VWS V12.07,2013-06-24 02:49:00,
2013-06-23 19:50:00,58.9,49.2,29.54,South,186,0.0,31.0,70,0.00,,---,0.00,VWS V12.07,2013-06-24 02:50:00,
2013-06-23 19:53:00,58.6,48.9,29.54,South,186,0.0,31.0,70,0.00,,---,0.00,VWS V12.07,2013-06-24 02:53:00,
2013-06-23 19:54:00,58.6,48.9,29.54,South,186,0.0,31.0,70,0.00,,---,0.00,VWS V12.07,2013-06-24 02:54:00,
2013-06-23 19:55:00,58.6,48.9,29.54,South,186,0.0,31.0,70,0.00,,---,0.00,VWS V12.07,2013-06-24 02:55:00,
2013-06-23 19:56:00,58.4,48.7,29.54,South,186,0.0,31.0,70,0.00,,---,0.00,VWS V12.07,2013-06-24 02:56:00,
2013-06-23 19:59:00,58.3,48.6,29.54,South,181,0.0,31.0,70,0.00,,---,0.00,VWS V12.07,2013-06-24 02:59:00,
2013-06-23 20:00:00,58.1,48.8,29.53,South,181,0.0,31.0,71,0.00,,---,0.00,VWS V12.07,2013-06-24 03:00:00,
2013-06-23 20:01:00,58.1,48.8,29.53,South,181,0.0,31.0,71,0.00,,---,0.00,VWS V12.07,2013-06-24 03:01:00,
2013-06-23 20:04:00,58.0,48.7,29.53,South,181,0.0,31.0,71,0.00,,---,0.00,VWS V12.07,2013-06-24 03:04:00,
2013-06-23 20:05:00,58.0,48.7,29.53,South,181,0.0,31.0,71,0.00,,---,0.00,VWS V12.07,2013-06-24 03:05:00,
2013-06-23 20:07:00,58.0,48.7,29.53,South,181,0.0,31.0,71,0.00,,---,0.00,VWS V12.07,2013-06-24 03:07:00,
2013-06-23 20:09:00,58.0,48.7,29.53,South,181,0.0,31.0,71,0.00,,---,0.00,VWS V12.07,2013-06-24 03:09:00,
2013-06-23 20:10:00,58.0,48.7,29.53,South,181,0.0,31.0,71,0.00,,---,0.00,VWS V12.07,2013-06-24 03:10:00,
2013-06-23 20:12:00,57.8,48.5,29.53,South,181,0.0,31.0,71,0.00,,---,0.00,VWS V12.07,2013-06-24 03:12:00,
2013-06-23 20:13:00,57.6,48.3,29.53,South,181,0.0,31.0,71,0.00,,---,0.00,VWS V12.07,2013-06-24 03:13:00,
2013-06-23 20:15:00,57.5,48.2,29.53,South,181,0.0,31.0,71,0.00,,---,0.00,VWS V12.07,2013-06-24 03:15:00,
2013-06-23 20:16:00,57.5,48.2,29.53,South,181,0.0,31.0,71,0.00,,---,0.00,VWS V12.07,2013-06-24 03:16:00,
2013-06-23 20:17:00,57.3,48.0,29.53,South,181,0.0,31.0,71,0.00,,---,0.00,VWS V12.07,2013-06-24 03:17:00,
2013-06-23 20:18:00,57.3,48.0,29.53,South,181,0.0,31.0,71,0.00,,---,0.00,VWS V12.07,2013-06-24 03:18:00,
2013-06-23 20:21:00,57.2,47.9,29.53,South,181,0.0,31.0,71,0.00,,---,0.00,VWS V12.07,2013-06-24 03:21:00,
2013-06-23 20:22:00,57.0,47.7,29.53,South,181,0.0,31.0,71,0.00,,---,0.00,VWS V12.07,2013-06-24 03:22:00,
2013-06-23 20:23:00,57.0,47.7,29.53,South,181,0.0,31.0,71,0.00,,---,0.00,VWS V12.07,2013-06-24 03:23:00,
2013-06-23 20:26:00,56.9,47.6,29.53,South,181,0.0,31.0,71,0.00,,---,0.00,VWS V12.07,2013-06-24 03:26:00,
2013-06-23 20:27:00,56.9,48.0,29.53,South,181,0.0,31.0,72,0.00,,---,0.00,VWS V12.07,2013-06-24 03:27:00,
2013-06-23 20:29:00,56.9,48.0,29.53,South,181,0.0,31.0,72,0.00,,---,0.00,VWS V12.07,2013-06-24 03:29:00,
2013-06-23 20:31:00,56.6,47.7,29.54,South,181,0.0,31.0,72,0.00,,---,0.00,VWS V12.07,2013-06-24 03:31:00,
2013-06-23 20:32:00,56.6,47.7,29.54,South,181,0.0,31.0,72,0.00,,---,0.00,VWS V12.07,2013-06-24 03:32:00,
2013-06-23 20:33:00,56.6,47.7,29.54,South,181,0.0,31.0,72,0.00,,---,0.00,VWS V12.07,2013-06-24 03:33:00,
2013-06-23 20:34:00,56.5,47.6,29.54,South,181,0.0,31.0,72,0.00,,---,0.00,VWS V12.07,2013-06-24 03:34:00,
2013-06-23 20:36:00,56.3,47.8,29.54,South,181,0.0,31.0,73,0.00,,---,0.00,VWS V12.07,2013-06-24 03:36:00,
2013-06-23 20:37:00,56.3,47.8,29.54,South,181,0.0,31.0,73,0.00,,---,0.00,VWS V12.07,2013-06-24 03:37:00,
2013-06-23 20:38:00,56.2,47.7,29.54,South,181,0.0,31.0,73,0.00,,---,0.00,VWS V12.07,2013-06-24 03:38:00,
2013-06-23 20:39:00,56.2,47.7,29.54,South,181,0.0,31.0,73,0.00,,---,0.00,VWS V12.07,2013-06-24 03:39:00,
2013-06-23 20:41:00,56.0,47.5,29.54,South,181,0.0,31.0,73,0.00,,---,0.00,VWS V12.07,2013-06-24 03:41:00,
2013-06-23 20:42:00,56.0,47.5,29.54,South,181,0.0,31.0,73,0.00,,---,0.00,VWS V12.07,2013-06-24 03:42:00,
2013-06-23 20:43:00,56.0,47.5,29.54,South,181,0.0,31.0,73,0.00,,---,0.00,VWS V12.07,2013-06-24 03:43:00,
2013-06-23 20:44:00,56.0,47.5,29.54,South,181,0.0,31.0,73,0.00,,---,0.00,VWS V12.07,2013-06-24 03:44:00,
2013-06-23 20:47:00,56.0,47.5,29.54,South,181,0.0,31.0,73,0.00,,---,0.00,VWS V12.07,2013-06-24 03:47:00,
2013-06-23 20:48:00,55.9,47.7,29.54,South,181,0.0,31.0,74,0.00,,---,0.00,VWS V12.07,2013-06-24 03:48:00,
2013-06-23 20:49:00,55.9,47.7,29.54,South,181,0.0,31.0,74,0.00,,---,0.00,VWS V12.07,2013-06-24 03:49:00,
2013-06-23 20:52:00,55.7,47.5,29.54,South,181,0.0,31.0,74,0.00,,---,0.00,VWS V12.07,2013-06-24 03:52:00,
2013-06-23 20:54:00,55.7,47.5,29.54,South,181,0.0,31.0,74,0.00,,---,0.00,VWS V12.07,2013-06-24 03:54:00,
2013-06-23 20:55:00,55.7,47.9,29.54,South,181,0.0,31.0,75,0.00,,---,0.00,VWS V12.07,2013-06-24 03:55:00,
2013-06-23 20:57:00,55.7,47.9,29.54,South,181,0.0,31.0,75,0.00,,---,0.00,VWS V12.07,2013-06-24 03:57:00,
2013-06-23 20:59:00,55.6,47.8,29.53,South,181,0.0,31.0,75,0.00,,---,0.00,VWS V12.07,2013-06-24 03:59:00,
2013-06-23 21:00:00,55.6,47.8,29.53,South,181,0.0,31.0,75,0.00,,---,0.00,VWS V12.07,2013-06-24 04:00:00,
2013-06-23 21:01:00,55.6,47.8,29.53,South,181,0.0,31.0,75,0.00,,---,0.00,VWS V12.07,2013-06-24 04:01:00,
2013-06-23 21:06:00,55.6,47.8,29.53,South,181,0.0,31.0,75,0.00,,---,0.00,VWS V12.07,2013-06-24 04:06:00,
2013-06-23 21:07:00,55.4,48.0,29.53,South,181,0.0,31.0,76,0.00,,---,0.00,VWS V12.07,2013-06-24 04:07:00,
2013-06-23 21:11:00,55.4,48.0,29.53,South,181,0.0,31.0,76,0.00,,---,0.00,VWS V12.07,2013-06-24 04:11:00,
2013-06-23 21:12:00,55.4,48.0,29.53,South,181,0.0,31.0,76,0.00,,---,0.00,VWS V12.07,2013-06-24 04:12:00,
2013-06-23 21:16:00,55.4,48.0,29.54,South,181,0.0,31.0,76,0.00,,---,0.00,VWS V12.07,2013-06-24 04:16:00,
2013-06-23 21:17:00,55.4,48.0,29.54,South,181,0.0,31.0,76,0.00,,---,0.00,VWS V12.07,2013-06-24 04:17:00,
2013-06-23 21:21:00,55.4,48.0,29.54,South,181,0.0,31.0,76,0.00,,---,0.00,VWS V12.07,2013-06-24 04:21:00,
2013-06-23 21:22:00,55.4,48.3,29.54,South,181,0.0,31.0,77,0.00,,---,0.00,VWS V12.07,2013-06-24 04:22:00,
2013-06-23 21:23:00,55.3,48.2,29.54,South,181,0.0,31.0,77,0.00,,---,0.00,VWS V12.07,2013-06-24 04:23:00,
2013-06-23 21:27:00,55.3,48.2,29.54,South,182,0.0,31.0,77,0.00,,---,0.00,VWS V12.07,2013-06-24 04:27:00,
2013-06-23 21:29:00,55.3,48.2,29.54,South,182,0.0,31.0,77,0.00,,---,0.00,VWS V12.07,2013-06-24 04:29:00,
2013-06-23 21:32:00,55.3,48.2,29.54,South,181,0.0,31.0,77,0.00,,---,0.00,VWS V12.07,2013-06-24 04:32:00,
2013-06-23 21:33:00,55.3,48.2,29.54,South,181,0.0,31.0,77,0.00,,---,0.00,VWS V12.07,2013-06-24 04:33:00,
2013-06-23 21:34:00,55.3,48.2,29.54,South,181,0.0,31.0,77,0.00,,---,0.00,VWS V12.07,2013-06-24 04:34:00,
2013-06-23 21:38:00,55.3,48.2,29.54,South,181,0.0,31.0,77,0.00,,---,0.00,VWS V12.07,2013-06-24 04:38:00,
2013-06-23 21:39:00,55.3,48.6,29.54,South,181,0.0,31.0,78,0.00,,---,0.00,VWS V12.07,2013-06-24 04:39:00,
2013-06-23 21:43:00,55.3,48.6,29.54,South,181,0.0,31.0,78,0.00,,---,0.00,VWS V12.07,2013-06-24 04:43:00,
2013-06-23 21:45:00,55.3,48.6,29.55,South,181,0.0,31.0,78,0.00,,---,0.00,VWS V12.07,2013-06-24 04:45:00,
2013-06-23 21:48:00,55.1,48.7,29.55,South,181,0.0,31.0,79,0.00,,---,0.00,VWS V12.07,2013-06-24 04:48:00,
2013-06-23 21:51:00,55.0,48.6,29.55,South,181,0.0,31.0,79,0.00,,---,0.00,VWS V12.07,2013-06-24 04:51:00,
2013-06-23 21:53:00,55.0,48.6,29.55,South,181,0.0,31.0,79,0.00,,---,0.00,VWS V12.07,2013-06-24 04:53:00,
2013-06-23 21:54:00,54.8,48.4,29.55,South,181,0.0,31.0,79,0.00,,---,0.00,VWS V12.07,2013-06-24 04:54:00,
2013-06-23 21:56:00,54.7,48.3,29.55,South,181,0.0,31.0,79,0.00,,---,0.00,VWS V12.07,2013-06-24 04:56:00,
2013-06-23 21:58:00,54.7,48.3,29.55,South,181,0.0,31.0,79,0.00,,---,0.00,VWS V12.07,2013-06-24 04:58:00,
2013-06-23 21:59:00,54.5,48.1,29.55,South,181,0.0,31.0,79,0.00,,---,0.00,VWS V12.07,2013-06-24 04:59:00,
2013-06-23 22:00:00,54.5,48.1,29.55,South,181,0.0,31.0,79,0.00,,---,0.00,VWS V12.07,2013-06-24 05:00:00,
2013-06-23 22:02:00,54.5,48.1,29.55,South,181,0.0,31.0,79,0.00,,---,0.00,VWS V12.07,2013-06-24 05:02:00,
2013-06-23 22:03:00,54.4,48.0,29.55,South,181,0.0,31.0,79,0.00,,---,0.00,VWS V12.07,2013-06-24 05:03:00,
2013-06-23 22:04:00,54.4,48.0,29.55,South,181,0.0,31.0,79,0.00,,---,0.00,VWS V12.07,2013-06-24 05:04:00,
2013-06-23 22:05:00,54.2,47.8,29.55,South,181,0.0,31.0,79,0.00,,---,0.00,VWS V12.07,2013-06-24 05:05:00,
2013-06-23 22:08:00,54.2,48.2,29.55,South,181,0.0,31.0,80,0.00,,---,0.00,VWS V12.07,2013-06-24 05:08:00,
2013-06-23 22:09:00,54.2,48.2,29.55,South,181,0.0,31.0,80,0.00,,---,0.00,VWS V12.07,2013-06-24 05:09:00,
2013-06-23 22:10:00,54.1,48.1,29.55,South,181,0.0,31.0,80,0.00,,---,0.00,VWS V12.07,2013-06-24 05:10:00,
2013-06-23 22:12:00,54.1,48.1,29.55,South,181,0.0,31.0,80,0.00,,---,0.00,VWS V12.07,2013-06-24 05:12:00,
2013-06-23 22:13:00,54.1,48.1,29.55,South,181,0.0,31.0,80,0.00,,---,0.00,VWS V12.07,2013-06-24 05:13:00,
2013-06-23 22:14:00,53.9,47.9,29.54,South,181,0.0,31.0,80,0.00,,---,0.00,VWS V12.07,2013-06-24 05:14:00,
2013-06-23 22:15:00,53.9,47.9,29.54,South,181,0.0,31.0,80,0.00,,---,0.00,VWS V12.07,2013-06-24 05:15:00,
2013-06-23 22:17:00,53.9,47.9,29.54,South,181,0.0,31.0,80,0.00,,---,0.00,VWS V12.07,2013-06-24 05:17:00,
2013-06-23 22:18:00,53.9,47.9,29.54,South,181,0.0,31.0,80,0.00,,---,0.00,VWS V12.07,2013-06-24 05:18:00,
2013-06-23 22:19:00,53.8,47.8,29.54,South,181,0.0,31.0,80,0.00,,---,0.00,VWS V12.07,2013-06-24 05:19:00,
2013-06-23 22:20:00,53.8,47.8,29.54,South,181,0.0,31.0,80,0.00,,---,0.00,VWS V12.07,2013-06-24 05:20:00,
2013-06-23 22:21:00,53.8,47.8,29.54,South,181,0.0,31.0,80,0.00,,---,0.00,VWS V12.07,2013-06-24 05:21:00,
2013-06-23 22:22:00,53.8,47.8,29.54,South,181,0.0,31.0,80,0.00,,---,0.00,VWS V12.07,2013-06-24 05:22:00,
2013-06-23 22:23:00,53.8,47.8,29.54,South,181,0.0,31.0,80,0.00,,---,0.00,VWS V12.07,2013-06-24 05:23:00,
2013-06-23 22:25:00,53.6,47.6,29.54,South,181,0.0,31.0,80,0.00,,---,0.00,VWS V12.07,2013-06-24 05:25:00,
2013-06-23 22:26:00,53.6,47.9,29.54,South,181,0.0,31.0,81,0.00,,---,0.00,VWS V12.07,2013-06-24 05:26:00,
2013-06-23 22:28:00,53.5,47.5,29.54,South,181,0.0,31.0,80,0.00,,---,0.00,VWS V12.07,2013-06-24 05:28:00,
2013-06-23 22:30:00,53.3,47.3,29.53,South,181,0.0,31.0,80,0.00,,---,0.00,VWS V12.07,2013-06-24 05:30:00,
2013-06-23 22:31:00,53.3,47.3,29.53,South,181,0.0,31.0,80,0.00,,---,0.00,VWS V12.07,2013-06-24 05:31:00,
2013-06-23 22:32:00,53.3,47.3,29.53,South,181,0.0,31.0,80,0.00,,---,0.00,VWS V12.07,2013-06-24 05:32:00,
2013-06-23 22:34:00,53.3,47.3,29.53,South,181,0.0,31.0,80,0.00,,---,0.00,VWS V12.07,2013-06-24 05:34:00,
2013-06-23 22:35:00,53.3,47.3,29.53,South,181,0.0,31.0,80,0.00,,---,0.00,VWS V12.07,2013-06-24 05:35:00,
2013-06-23 22:37:00,53.2,47.2,29.53,South,181,2.0,31.0,80,0.00,,---,0.00,VWS V12.07,2013-06-24 05:37:00,
2013-06-23 22:41:00,53.1,47.4,29.53,South,181,2.0,31.0,81,0.00,,---,0.00,VWS V12.07,2013-06-24 05:41:00,
2013-06-23 22:42:00,53.1,47.1,29.53,South,181,2.0,31.0,80,0.00,,---,0.00,VWS V12.07,2013-06-24 05:42:00,
2013-06-23 22:43:00,53.1,47.1,29.53,South,181,2.0,31.0,80,0.00,,---,0.00,VWS V12.07,2013-06-24 05:43:00,
2013-06-23 22:46:00,52.9,46.9,29.54,South,181,2.0,31.0,80,0.00,,---,0.00,VWS V12.07,2013-06-24 05:46:00,
2013-06-23 22:48:00,52.9,46.9,29.54,South,181,0.0,31.0,80,0.00,,---,0.00,VWS V12.07,2013-06-24 05:48:00,
2013-06-23 22:49:00,52.9,46.6,29.54,South,181,2.0,31.0,79,0.00,,---,0.00,VWS V12.07,2013-06-24 05:49:00,
2013-06-23 22:51:00,52.9,46.6,29.54,South,181,2.0,31.0,79,0.00,,---,0.00,VWS V12.07,2013-06-24 05:51:00,
2013-06-23 22:52:00,52.9,46.6,29.54,South,181,3.0,31.0,79,0.00,,---,0.00,VWS V12.07,2013-06-24 05:52:00,
2013-06-23 22:53:00,52.9,46.6,29.54,South,181,5.0,31.0,79,0.00,,---,0.00,VWS V12.07,2013-06-24 05:53:00,
2013-06-23 22:54:00,52.9,46.6,29.54,South,181,2.0,31.0,79,0.00,,---,0.00,VWS V12.07,2013-06-24 05:54:00,
2013-06-23 22:57:00,52.8,46.1,29.54,South,182,2.0,31.0,78,0.00,,---,0.00,VWS V12.07,2013-06-24 05:57:00,
2013-06-23 22:58:00,52.8,46.1,29.54,South,181,2.0,31.0,78,0.00,,---,0.00,VWS V12.07,2013-06-24 05:58:00,
2013-06-23 22:59:00,52.8,46.1,29.54,South,181,5.0,31.0,78,0.00,,---,0.00,VWS V12.07,2013-06-24 05:59:00,
2013-06-23 23:02:00,52.8,45.5,29.54,South,182,2.0,31.0,76,0.00,,---,0.00,VWS V12.07,2013-06-24 06:02:00,
2013-06-23 23:03:00,52.8,45.8,29.54,South,182,2.0,31.0,77,0.00,,---,0.00,VWS V12.07,2013-06-24 06:03:00,
2013-06-23 23:05:00,52.8,45.8,29.54,South,182,3.0,31.0,77,0.00,,---,0.00,VWS V12.07,2013-06-24 06:05:00,
2013-06-23 23:07:00,52.6,45.6,29.54,South,182,2.0,31.0,77,0.00,,---,0.00,VWS V12.07,2013-06-24 06:07:00,
2013-06-23 23:09:00,52.6,46.0,29.54,South,182,2.0,31.0,78,0.00,,---,0.00,VWS V12.07,2013-06-24 06:09:00,
2013-06-23 23:10:00,52.6,46.0,29.54,South,182,4.0,31.0,78,0.00,,---,0.00,VWS V12.07,2013-06-24 06:10:00,
2013-06-23 23:13:00,52.6,45.3,29.54,South,185,1.0,31.0,76,0.00,,---,0.00,VWS V12.07,2013-06-24 06:13:00,
2013-06-23 23:14:00,52.6,45.3,29.53,South,185,2.0,31.0,76,0.00,,---,0.00,VWS V12.07,2013-06-24 06:14:00,
2013-06-23 23:15:00,52.6,45.3,29.53,South,185,3.0,31.0,76,0.00,,---,0.00,VWS V12.07,2013-06-24 06:15:00,
2013-06-23 23:19:00,52.6,45.3,29.53,South,186,2.0,31.0,76,0.00,,---,0.00,VWS V12.07,2013-06-24 06:19:00,
2013-06-23 23:20:00,52.6,45.3,29.53,South,188,5.0,31.0,76,0.00,,---,0.00,VWS V12.07,2013-06-24 06:20:00,
2013-06-23 23:21:00,52.6,44.9,29.53,South,188,3.0,31.0,75,0.00,,---,0.00,VWS V12.07,2013-06-24 06:21:00,
2013-06-23 23:24:00,52.6,45.3,29.53,South,191,2.0,31.0,76,0.00,,---,0.00,VWS V12.07,2013-06-24 06:24:00,
2013-06-23 23:25:00,52.6,44.9,29.53,South,191,5.0,31.0,75,0.00,,---,0.00,VWS V12.07,2013-06-24 06:25:00,
2013-06-23 23:26:00,52.6,44.6,29.53,South,189,3.0,31.0,74,0.00,,---,0.00,VWS V12.07,2013-06-24 06:26:00,
2013-06-23 23:30:00,52.5,45.2,29.53,South,189,3.0,31.0,76,0.00,,---,0.00,VWS V12.07,2013-06-24 06:30:00,
2013-06-23 23:32:00,52.5,45.2,29.53,South,191,6.0,31.0,76,0.00,,---,0.00,VWS V12.07,2013-06-24 06:32:00,
2013-06-23 23:35:00,52.5,44.8,29.53,South,189,6.0,31.0,75,0.00,,---,0.00,VWS V12.07,2013-06-24 06:35:00,
2013-06-23 23:38:00,52.5,44.8,29.53,South,188,3.0,31.0,75,0.00,,---,0.00,VWS V12.07,2013-06-24 06:38:00,
2013-06-23 23:39:00,52.5,44.5,29.53,South,189,5.0,31.0,74,0.00,,---,0.00,VWS V12.07,2013-06-24 06:39:00,
2013-06-23 23:41:00,52.5,44.8,29.53,South,188,3.0,31.0,75,0.00,,---,0.00,VWS V12.07,2013-06-24 06:41:00,
2013-06-23 23:43:00,52.5,44.8,29.53,South,188,2.0,31.0,75,0.00,,---,0.00,VWS V12.07,2013-06-24 06:43:00,
2013-06-23 23:45:00,52.5,44.8,29.53,South,188,3.0,31.0,75,0.00,,---,0.00,VWS V12.07,2013-06-24 06:45:00,
2013-06-23 23:49:00,52.5,45.2,29.53,South,188,3.0,31.0,76,0.00,,---,0.00,VWS V12.07,2013-06-24 06:49:00,
2013-06-23 23:50:00,52.5,45.2,29.53,South,188,2.0,31.0,76,0.00,,---,0.00,VWS V12.07,2013-06-24 06:50:00,
2013-06-23 23:54:00,52.5,44.8,29.53,South,188,3.0,31.0,75,0.00,,---,0.00,VWS V12.07,2013-06-24 06:54:00,
2013-06-23 23:55:00,52.5,44.5,29.53,South,188,3.0,31.0,74,0.00,,---,0.00,VWS V12.07,2013-06-24 06:55:00,